Time,TemperatureF,DewpointF,PressureIn,WindDirection,WindDirectionDegrees,WindSpeedMPH,WindSpeedGustMPH,Humidity,HourlyPrecipIn,Conditions,Clouds,dailyrainin,SoftwareType,DateUTC
2013-01-12 00:07:00,36.0,33.9,30.32,SSE,148,1.0,1.0,92,0.00,,,0.00,Wunderground v.1.15,2013-01-12 05:07:00,
2013-01-12 00:08:00,36.0,33.9,30.31,SSE,148,2.0,2.0,92,0.00,,,0.00,Wunderground v.1.15,2013-01-12 05:08:00,
2013-01-12 00:09:00,35.9,33.8,30.31,SSE,148,0.0,2.0,92,0.00,,,0.00,Wunderground v.1.15,2013-01-12 05:09:00,
2013-01-12 00:12:00,36.0,33.9,30.31,SSE,148,1.0,2.0,92,0.00,,,0.00,Wunderground v.1.15,2013-01-12 05:12:00,
2013-01-12 00:13:00,35.9,33.8,30.31,SSE,148,1.0,2.0,92,0.00,,,0.00,Wunderground v.1.15,2013-01-12 05:13:00,
2013-01-12 00:14:00,35.9,33.8,30.31,SSE,148,0.0,2.0,92,0.00,,,0.00,Wunderground v.1.15,2013-01-12 05:14:00,
2013-01-12 00:18:00,35.9,33.8,30.31,SSE,148,1.0,1.0,92,0.00,,,0.01,Wunderground v.1.15,2013-01-12 05:18:00,
2013-01-12 00:19:00,35.9,33.8,30.31,SSE,148,0.0,1.0,92,0.00,,,0.01,Wunderground v.1.15,2013-01-12 05:19:00,
2013-01-12 00:20:00,35.9,33.8,30.31,SSE,148,0.0,1.0,92,0.00,,,0.01,Wunderground v.1.15,2013-01-12 05:20:00,
2013-01-12 00:23:00,35.9,33.8,30.31,SSE,148,2.0,2.0,92,0.00,,,0.01,Wunderground v.1.15,2013-01-12 05:23:00,
2013-01-12 00:26:00,35.9,33.8,30.31,SSE,148,2.0,2.0,92,0.00,,,0.01,Wunderground v.1.15,2013-01-12 05:26:00,
2013-01-12 00:27:00,35.9,33.8,30.31,SSE,148,1.0,2.0,92,0.00,,,0.01,Wunderground v.1.15,2013-01-12 05:27:00,
2013-01-12 00:28:00,35.9,33.8,30.31,SSE,148,1.0,2.0,92,0.00,,,0.01,Wunderground v.1.15,2013-01-12 05:28:00,
2013-01-12 00:29:00,35.9,33.8,30.31,SSE,148,2.0,2.0,92,0.00,,,0.01,Wunderground v.1.15,2013-01-12 05:29:00,
2013-01-12 00:34:00,35.8,33.7,30.31,SSE,148,2.0,2.0,92,0.00,,,0.01,Wunderground v.1.15,2013-01-12 05:34:00,
2013-01-12 00:35:00,35.8,33.7,30.31,SSE,148,2.0,2.0,92,0.00,,,0.01,Wunderground v.1.15,2013-01-12 05:35:00,
2013-01-12 00:37:00,35.8,33.7,30.30,SSE,148,2.0,2.0,92,0.00,,,0.01,Wunderground v.1.15,2013-01-12 05:37:00,
2013-01-12 00:40:00,35.8,33.7,30.30,SSE,148,1.0,2.0,92,0.00,,,0.01,Wunderground v.1.15,2013-01-12 05:40:00,
2013-01-12 00:41:00,35.8,33.7,30.30,SSE,148,1.0,2.0,92,0.00,,,0.01,Wunderground v.1.15,2013-01-12 05:41:00,
2013-01-12 00:42:00,35.9,33.8,30.30,SSE,148,1.0,2.0,92,0.00,,,0.01,Wunderground v.1.15,2013-01-12 05:42:00,
2013-01-12 00:46:00,35.8,33.7,30.30,SSE,148,0.0,1.0,92,0.00,,,0.01,Wunderground v.1.15,2013-01-12 05:46:00,
2013-01-12 00:47:00,35.8,33.7,30.30,SSE,148,2.0,2.0,92,0.00,,,0.01,Wunderground v.1.15,2013-01-12 05:47:00,
2013-01-12 00:52:00,35.8,33.7,30.30,SSE,148,0.0,2.0,92,0.00,,,0.01,Wunderground v.1.15,2013-01-12 05:52:00,
2013-01-12 00:54:00,35.8,33.7,30.30,SSE,148,0.0,2.0,92,0.00,,,0.01,Wunderground v.1.15,2013-01-12 05:54:00,
2013-01-12 00:55:00,35.8,33.7,30.29,SSE,148,0.0,2.0,92,0.00,,,0.01,Wunderground v.1.15,2013-01-12 05:55:00,
2013-01-12 00:59:00,35.9,33.8,30.29,SSE,148,2.0,3.0,92,0.00,,,0.01,Wunderground v.1.15,2013-01-12 05:59:00,
2013-01-12 01:00:00,35.9,33.8,30.29,SSE,148,1.0,3.0,92,0.00,,,0.02,Wunderground v.1.15,2013-01-12 06:00:00,
2013-01-12 01:04:00,35.9,33.8,30.29,SSE,148,2.0,3.0,92,0.00,,,0.02,Wunderground v.1.15,2013-01-12 06:04:00,
2013-01-12 01:05:00,35.9,33.8,30.29,SSE,148,2.0,3.0,92,0.00,,,0.02,Wunderground v.1.15,2013-01-12 06:05:00,
2013-01-12 01:07:00,35.9,33.8,30.29,SSE,148,0.0,1.0,92,0.00,,,0.02,Wunderground v.1.15,2013-01-12 06:07:00,
2013-01-12 01:10:00,36.0,33.9,30.29,SSE,148,1.0,3.0,92,0.00,,,0.02,Wunderground v.1.15,2013-01-12 06:10:00,
2013-01-12 01:13:00,36.2,34.1,30.28,SSE,149,2.0,3.0,92,0.00,,,0.02,Wunderground v.1.15,2013-01-12 06:13:00,
2013-01-12 01:15:00,36.1,34.0,30.28,SSE,149,2.0,3.0,92,0.00,,,0.02,Wunderground v.1.15,2013-01-12 06:15:00,
2013-01-12 01:16:00,36.1,34.0,30.29,SSE,149,1.0,1.0,92,0.00,,,0.02,Wunderground v.1.15,2013-01-12 06:16:00,
2013-01-12 01:17:00,36.1,34.0,30.29,SSE,149,4.0,4.0,92,0.00,,,0.02,Wunderground v.1.15,2013-01-12 06:17:00,
2013-01-12 01:20:00,36.0,33.9,30.28,SSE,149,1.0,4.0,92,0.00,,,0.02,Wunderground v.1.15,2013-01-12 06:20:00,
2013-01-12 01:22:00,36.0,33.9,30.28,SSE,149,0.0,4.0,92,0.00,,,0.02,Wunderground v.1.15,2013-01-12 06:22:00,
2013-01-12 01:23:00,36.1,34.0,30.28,SSE,149,1.0,4.0,92,0.00,,,0.02,Wunderground v.1.15,2013-01-12 06:23:00,
2013-01-12 01:28:00,36.6,34.5,30.28,SSE,149,1.0,1.0,92,0.00,,,0.02,Wunderground v.1.15,2013-01-12 06:28:00,
2013-01-12 01:30:00,36.5,34.4,30.28,SSE,149,0.0,1.0,92,0.00,,,0.02,Wunderground v.1.15,2013-01-12 06:30:00,
2013-01-12 01:31:00,36.4,34.3,30.28,SSE,149,0.0,1.0,92,0.00,,,0.02,Wunderground v.1.15,2013-01-12 06:31:00,
2013-01-12 01:32:00,36.4,34.3,30.28,SSE,149,0.0,1.0,92,0.00,,,0.02,Wunderground v.1.15,2013-01-12 06:32:00,
2013-01-12 01:34:00,36.2,34.1,30.28,SSE,149,1.0,1.0,92,0.00,,,0.02,Wunderground v.1.15,2013-01-12 06:34:00,
2013-01-12 01:35:00,36.2,34.1,30.28,SSE,149,0.0,1.0,92,0.00,,,0.02,Wunderground v.1.15,2013-01-12 06:35:00,
2013-01-12 01:36:00,36.2,34.1,30.28,SSE,149,1.0,1.0,92,0.00,,,0.02,Wunderground v.1.15,2013-01-12 06:36:00,
2013-01-12 01:40:00,36.1,34.0,30.27,SSE,149,2.0,2.0,92,0.00,,,0.02,Wunderground v.1.15,2013-01-12 06:40:00,
2013-01-12 01:41:00,36.1,34.0,30.27,SSE,149,2.0,2.0,92,0.00,,,0.02,Wunderground v.1.15,2013-01-12 06:41:00,
2013-01-12 01:42:00,36.1,34.0,30.27,SSE,149,3.0,3.0,92,0.00,,,0.02,Wunderground v.1.15,2013-01-12 06:42:00,
2013-01-12 01:44:00,36.1,34.0,30.27,SSE,149,2.0,3.0,92,0.00,,,0.02,Wunderground v.1.15,2013-01-12 06:44:00,
2013-01-12 01:45:00,36.0,33.9,30.27,SSE,149,0.0,3.0,92,0.00,,,0.02,Wunderground v.1.15,2013-01-12 06:45:00,
2013-01-12 01:47:00,36.1,34.0,30.27,SSE,149,0.0,1.0,92,0.00,,,0.02,Wunderground v.1.15,2013-01-12 06:47:00,
2013-01-12 01:51:00,36.1,34.0,30.27,SSE,149,0.0,2.0,92,0.00,,,0.02,Wunderground v.1.15,2013-01-12 06:51:00,
2013-01-12 01:53:00,36.1,34.0,30.27,SSE,149,2.0,2.0,92,0.00,,,0.02,Wunderground v.1.15,2013-01-12 06:53:00,
2013-01-12 01:54:00,36.0,33.9,30.27,SSE,149,1.0,2.0,92,0.00,,,0.02,Wunderground v.1.15,2013-01-12 06:54:00,
2013-01-12 01:56:00,36.1,34.0,30.27,SSE,149,1.0,1.0,92,0.00,,,0.02,Wunderground v.1.15,2013-01-12 06:56:00,
2013-01-12 02:01:00,36.1,34.0,30.28,SSE,149,0.0,1.0,92,0.00,,,0.02,Wunderground v.1.15,2013-01-12 07:01:00,
2013-01-12 02:02:00,36.1,34.0,30.28,SSE,149,0.0,1.0,92,0.00,,,0.02,Wunderground v.1.15,2013-01-12 07:02:00,
2013-01-12 02:04:00,36.2,34.1,30.28,SSE,149,0.0,1.0,92,0.00,,,0.02,Wunderground v.1.15,2013-01-12 07:04:00,
2013-01-12 02:06:00,36.2,34.1,30.28,SSE,149,0.0,0.0,92,0.00,,,0.02,Wunderground v.1.15,2013-01-12 07:06:00,
2013-01-12 02:07:00,36.2,34.1,30.28,SSE,149,0.0,0.0,92,0.00,,,0.02,Wunderground v.1.15,2013-01-12 07:07:00,
2013-01-12 02:08:00,36.2,34.1,30.28,SSE,149,0.0,0.0,92,0.00,,,0.02,Wunderground v.1.15,2013-01-12 07:08:00,
2013-01-12 02:09:00,36.2,34.1,30.28,SSE,149,0.0,0.0,92,0.00,,,0.02,Wunderground v.1.15,2013-01-12 07:09:00,
2013-01-12 02:14:00,36.2,34.1,30.28,SSE,149,0.0,1.0,92,0.00,,,0.02,Wunderground v.1.15,2013-01-12 07:14:00,
2013-01-12 02:15:00,36.2,34.1,30.28,SSE,149,0.0,1.0,92,0.00,,,0.02,Wunderground v.1.15,2013-01-12 07:15:00,
2013-01-12 02:16:00,36.2,34.1,30.28,SSE,149,0.0,0.0,92,0.00,,,0.02,Wunderground v.1.15,2013-01-12 07:16:00,
2013-01-12 02:17:00,36.2,34.1,30.28,SSE,149,0.0,0.0,92,0.00,,,0.02,Wunderground v.1.15,2013-01-12 07:17:00,
2013-01-12 02:20:00,36.2,34.1,30.28,SSE,149,2.0,2.0,92,0.00,,,0.02,Wunderground v.1.15,2013-01-12 07:20:00,
2013-01-12 02:21:00,36.2,34.1,30.28,SSE,149,0.0,2.0,92,0.00,,,0.02,Wunderground v.1.15,2013-01-12 07:21:00,
2013-01-12 02:23:00,36.2,34.1,30.28,SSE,149,0.0,2.0,92,0.00,,,0.02,Wunderground v.1.15,2013-01-12 07:23:00,
2013-01-12 02:25:00,36.2,34.1,30.28,SSE,149,0.0,2.0,92,0.00,,,0.02,Wunderground v.1.15,2013-01-12 07:25:00,
2013-01-12 02:26:00,36.2,34.1,30.28,SSE,149,0.0,0.0,92,0.00,,,0.02,Wunderground v.1.15,2013-01-12 07:26:00,
2013-01-12 02:28:00,36.2,34.1,30.28,SSE,149,0.0,0.0,92,0.00,,,0.02,Wunderground v.1.15,2013-01-12 07:28:00,
2013-01-12 02:30:00,36.3,34.2,30.28,SSE,149,0.0,0.0,92,0.00,,,0.02,Wunderground v.1.15,2013-01-12 07:30:00,
2013-01-12 02:32:00,36.3,34.2,30.28,SSE,149,0.0,1.0,92,0.00,,,0.02,Wunderground v.1.15,2013-01-12 07:32:00,
2013-01-12 02:33:00,36.3,34.2,30.28,SSE,149,1.0,2.0,92,0.00,,,0.02,Wunderground v.1.15,2013-01-12 07:33:00,
2013-01-12 02:35:00,36.4,34.3,30.28,SSE,149,0.0,2.0,92,0.00,,,0.02,Wunderground v.1.15,2013-01-12 07:35:00,
2013-01-12 02:37:00,36.4,34.3,30.28,SSE,149,0.0,1.0,92,0.00,,,0.02,Wunderground v.1.15,2013-01-12 07:37:00,
2013-01-12 02:39:00,36.4,34.3,30.27,SSE,149,0.0,1.0,92,0.00,,,0.02,Wunderground v.1.15,2013-01-12 07:39:00,
2013-01-12 02:40:00,36.4,34.3,30.27,SSE,149,1.0,1.0,92,0.00,,,0.02,Wunderground v.1.15,2013-01-12 07:40:00,
2013-01-12 02:41:00,36.4,34.3,30.27,SSE,149,0.0,1.0,92,0.00,,,0.02,Wunderground v.1.15,2013-01-12 07:41:00,
2013-01-12 02:42:00,36.4,34.3,30.27,SSE,149,1.0,1.0,92,0.00,,,0.02,Wunderground v.1.15,2013-01-12 07:42:00,
2013-01-12 02:44:00,36.4,34.3,30.27,SSE,149,0.0,1.0,92,0.00,,,0.02,Wunderground v.1.15,2013-01-12 07:44:00,
2013-01-12 02:46:00,36.5,34.4,30.27,SSE,149,0.0,1.0,92,0.00,,,0.02,Wunderground v.1.15,2013-01-12 07:46:00,
2013-01-12 02:47:00,36.5,34.4,30.27,SSE,149,0.0,1.0,92,0.00,,,0.02,Wunderground v.1.15,2013-01-12 07:47:00,
2013-01-12 02:50:00,36.5,34.4,30.27,SSE,149,0.0,1.0,92,0.00,,,0.02,Wunderground v.1.15,2013-01-12 07:50:00,
2013-01-12 02:51:00,36.5,34.4,30.27,SSE,149,0.0,1.0,92,0.00,,,0.02,Wunderground v.1.15,2013-01-12 07:51:00,
2013-01-12 02:52:00,36.5,34.4,30.27,SSE,149,0.0,1.0,92,0.00,,,0.02,Wunderground v.1.15,2013-01-12 07:52:00,
2013-01-12 02:55:00,36.6,34.5,30.27,SSE,149,0.0,1.0,92,0.00,,,0.02,Wunderground v.1.15,2013-01-12 07:55:00,
2013-01-12 02:56:00,36.6,34.5,30.27,SSE,149,1.0,1.0,92,0.00,,,0.02,Wunderground v.1.15,2013-01-12 07:56:00,
2013-01-12 02:58:00,36.6,34.5,30.27,SSE,149,0.0,1.0,92,0.00,,,0.02,Wunderground v.1.15,2013-01-12 07:58:00,
2013-01-12 03:01:00,36.6,34.5,30.27,SSE,149,0.0,1.0,92,0.00,,,0.02,Wunderground v.1.15,2013-01-12 08:01:00,
2013-01-12 03:02:00,36.6,34.5,30.26,SSE,149,0.0,1.0,92,0.00,,,0.02,Wunderground v.1.15,2013-01-12 08:02:00,
2013-01-12 03:03:00,36.6,34.5,30.26,SSE,149,1.0,1.0,92,0.00,,,0.02,Wunderground v.1.15,2013-01-12 08:03:00,
2013-01-12 03:06:00,36.6,34.5,30.26,SSE,149,0.0,0.0,92,0.00,,,0.02,Wunderground v.1.15,2013-01-12 08:06:00,
2013-01-12 03:07:00,36.7,34.6,30.26,SSE,149,0.0,0.0,92,0.00,,,0.02,Wunderground v.1.15,2013-01-12 08:07:00,
2013-01-12 03:08:00,36.7,34.6,30.26,SSE,149,0.0,1.0,92,0.00,,,0.02,Wunderground v.1.15,2013-01-12 08:08:00,
2013-01-12 03:11:00,36.7,34.6,30.25,SSE,149,0.0,1.0,92,0.00,,,0.02,Wunderground v.1.15,2013-01-12 08:11:00,
2013-01-12 03:12:00,36.7,34.6,30.25,SSE,149,0.0,2.0,92,0.00,,,0.02,Wunderground v.1.15,2013-01-12 08:12:00,
2013-01-12 03:13:00,36.7,34.6,30.25,SSE,149,1.0,2.0,92,0.00,,,0.02,Wunderground v.1.15,2013-01-12 08:13:00,
2013-01-12 03:16:00,36.8,34.7,30.25,SSE,149,0.0,2.0,92,0.00,,,0.02,Wunderground v.1.15,2013-01-12 08:16:00,
2013-01-12 03:17:00,36.8,34.7,30.25,SSE,149,2.0,2.0,92,0.00,,,0.02,Wunderground v.1.15,2013-01-12 08:17:00,
2013-01-12 03:18:00,36.8,34.7,30.25,SSE,149,2.0,2.0,92,0.00,,,0.02,Wunderground v.1.15,2013-01-12 08:18:00,
2013-01-12 03:21:00,36.8,34.7,30.25,SSE,147,1.0,3.0,92,0.00,,,0.02,Wunderground v.1.15,2013-01-12 08:21:00,
2013-01-12 03:22:00,36.8,34.7,30.25,SSE,147,1.0,3.0,92,0.00,,,0.02,Wunderground v.1.15,2013-01-12 08:22:00,
2013-01-12 03:23:00,36.8,34.7,30.25,SSE,147,1.0,3.0,92,0.00,,,0.02,Wunderground v.1.15,2013-01-12 08:23:00,
2013-01-12 03:24:00,36.8,34.7,30.25,SSE,147,0.0,3.0,92,0.00,,,0.02,Wunderground v.1.15,2013-01-12 08:24:00,
2013-01-12 03:27:00,36.9,34.8,30.25,SSE,150,1.0,2.0,92,0.00,,,0.02,Wunderground v.1.15,2013-01-12 08:27:00,
2013-01-12 03:28:00,36.9,34.8,30.25,SSE,150,3.0,3.0,92,0.00,,,0.02,Wunderground v.1.15,2013-01-12 08:28:00,
2013-01-12 03:29:00,36.9,34.8,30.25,SSE,150,2.0,3.0,92,0.00,,,0.02,Wunderground v.1.15,2013-01-12 08:29:00,
2013-01-12 03:32:00,37.0,34.9,30.25,SSE,150,2.0,3.0,92,0.00,,,0.02,Wunderground v.1.15,2013-01-12 08:32:00,
2013-01-12 03:33:00,37.2,35.1,30.25,SSE,150,0.0,3.0,92,0.00,,,0.02,Wunderground v.1.15,2013-01-12 08:33:00,
2013-01-12 03:34:00,37.3,35.2,30.25,SSE,150,0.0,3.0,92,0.00,,,0.02,Wunderground v.1.15,2013-01-12 08:34:00,
2013-01-12 03:37:00,38.2,36.1,30.25,SSE,150,0.0,1.0,92,0.00,,,0.02,Wunderground v.1.15,2013-01-12 08:37:00,
2013-01-12 03:38:00,38.8,36.7,30.25,SSE,150,0.0,1.0,92,0.00,,,0.02,Wunderground v.1.15,2013-01-12 08:38:00,
2013-01-12 03:39:00,39.1,37.0,30.25,SSE,150,0.0,1.0,92,0.00,,,0.02,Wunderground v.1.15,2013-01-12 08:39:00,
2013-01-12 03:42:00,40.1,38.0,30.25,SSE,150,1.0,2.0,92,0.00,,,0.02,Wunderground v.1.15,2013-01-12 08:42:00,
2013-01-12 03:43:00,39.8,37.7,30.25,SSE,150,0.0,2.0,92,0.00,,,0.02,Wunderground v.1.15,2013-01-12 08:43:00,
2013-01-12 03:44:00,40.3,38.2,30.25,SSE,150,0.0,2.0,92,0.00,,,0.02,Wunderground v.1.15,2013-01-12 08:44:00,
2013-01-12 03:47:00,42.5,40.1,30.25,SSE,150,0.0,0.0,91,0.00,,,0.02,Wunderground v.1.15,2013-01-12 08:47:00,
2013-01-12 03:48:00,43.3,40.8,30.25,SSE,150,0.0,1.0,91,0.00,,,0.02,Wunderground v.1.15,2013-01-12 08:48:00,
2013-01-12 03:49:00,44.6,42.1,30.25,SSE,150,0.0,1.0,91,0.00,,,0.02,Wunderground v.1.15,2013-01-12 08:49:00,
2013-01-12 03:52:00,47.7,44.9,30.25,SSE,150,0.0,1.0,90,0.00,,,0.02,Wunderground v.1.15,2013-01-12 08:52:00,
2013-01-12 03:54:00,47.7,45.2,30.25,SSE,150,0.0,1.0,91,0.00,,,0.02,Wunderground v.1.15,2013-01-12 08:54:00,
2013-01-12 03:55:00,47.4,44.9,30.25,SSE,150,0.0,1.0,91,0.00,,,0.02,Wunderground v.1.15,2013-01-12 08:55:00,
2013-01-12 03:58:00,46.2,43.7,30.25,SSE,150,0.0,0.0,91,0.00,,,0.02,Wunderground v.1.15,2013-01-12 08:58:00,
2013-01-12 03:59:00,45.1,42.6,30.25,SSE,150,0.0,0.0,91,0.00,,,0.02,Wunderground v.1.15,2013-01-12 08:59:00,
2013-01-12 04:00:00,44.8,42.3,30.25,SSE,150,0.0,0.0,91,0.00,,,0.02,Wunderground v.1.15,2013-01-12 09:00:00,
2013-01-12 04:03:00,43.1,40.7,30.25,SSE,150,0.0,0.0,91,0.00,,,0.02,Wunderground v.1.15,2013-01-12 09:03:00,
2013-01-12 04:04:00,42.3,39.9,30.25,SSE,150,0.0,0.0,91,0.00,,,0.02,Wunderground v.1.15,2013-01-12 09:04:00,
2013-01-12 04:05:00,42.0,39.8,30.25,SSE,150,0.0,0.0,92,0.00,,,0.02,Wunderground v.1.15,2013-01-12 09:05:00,
2013-01-12 04:09:00,40.6,38.5,30.25,SSE,150,0.0,0.0,92,0.00,,,0.02,Wunderground v.1.15,2013-01-12 09:09:00,
2013-01-12 04:10:00,40.0,37.9,30.24,SSE,150,0.0,0.0,92,0.00,,,0.02,Wunderground v.1.15,2013-01-12 09:10:00,
2013-01-12 04:14:00,38.9,36.8,30.25,SSE,150,0.0,1.0,92,0.00,,,0.02,Wunderground v.1.15,2013-01-12 09:14:00,
2013-01-12 04:15:00,38.6,36.5,30.24,SSE,150,0.0,1.0,92,0.00,,,0.02,Wunderground v.1.15,2013-01-12 09:15:00,
2013-01-12 04:16:00,38.5,36.4,30.24,SSE,150,0.0,1.0,92,0.00,,,0.02,Wunderground v.1.15,2013-01-12 09:16:00,
2013-01-12 04:19:00,37.9,35.8,30.24,SSE,150,0.0,2.0,92,0.00,,,0.02,Wunderground v.1.15,2013-01-12 09:19:00,
2013-01-12 04:20:00,37.8,35.7,30.24,SSE,150,0.0,2.0,92,0.00,,,0.02,Wunderground v.1.15,2013-01-12 09:20:00,
2013-01-12 04:21:00,37.8,35.7,30.24,SSE,150,0.0,2.0,92,0.00,,,0.02,Wunderground v.1.15,2013-01-12 09:21:00,
2013-01-12 04:24:00,37.5,35.4,30.24,SSE,150,1.0,2.0,92,0.00,,,0.02,Wunderground v.1.15,2013-01-12 09:24:00,
2013-01-12 04:25:00,37.4,35.3,30.24,SSE,150,2.0,2.0,92,0.00,,,0.02,Wunderground v.1.15,2013-01-12 09:25:00,
2013-01-12 04:26:00,37.4,35.3,30.24,SSE,150,1.0,2.0,92,0.00,,,0.02,Wunderground v.1.15,2013-01-12 09:26:00,
2013-01-12 04:30:00,37.2,35.1,30.23,SSE,150,1.0,3.0,92,0.00,,,0.02,Wunderground v.1.15,2013-01-12 09:30:00,
2013-01-12 04:31:00,37.2,35.1,30.23,SSE,150,1.0,3.0,92,0.00,,,0.02,Wunderground v.1.15,2013-01-12 09:31:00,
2013-01-12 04:36:00,37.1,35.0,30.24,SSE,150,0.0,3.0,92,0.00,,,0.02,Wunderground v.1.15,2013-01-12 09:36:00,
2013-01-12 04:41:00,37.1,35.0,30.24,SSE,150,0.0,1.0,92,0.00,,,0.02,Wunderground v.1.15,2013-01-12 09:41:00,
2013-01-12 04:42:00,37.3,35.2,30.24,SSE,150,0.0,1.0,92,0.00,,,0.02,Wunderground v.1.15,2013-01-12 09:42:00,
2013-01-12 04:46:00,37.2,35.1,30.25,SSE,150,0.0,0.0,92,0.00,,,0.02,Wunderground v.1.15,2013-01-12 09:46:00,
2013-01-12 04:47:00,37.1,35.0,30.25,SSE,150,0.0,1.0,92,0.00,,,0.02,Wunderground v.1.15,2013-01-12 09:47:00,
2013-01-12 04:51:00,37.1,35.0,30.25,SSE,150,0.0,1.0,92,0.00,,,0.02,Wunderground v.1.15,2013-01-12 09:51:00,
2013-01-12 04:52:00,37.1,35.0,30.25,SSE,150,0.0,1.0,92,0.00,,,0.02,Wunderground v.1.15,2013-01-12 09:52:00,
2013-01-12 04:55:00,37.1,35.0,30.25,SSE,150,1.0,1.0,92,0.00,,,0.02,Wunderground v.1.15,2013-01-12 09:55:00,
2013-01-12 04:56:00,37.0,34.9,30.25,SSE,150,1.0,1.0,92,0.00,,,0.02,Wunderground v.1.15,2013-01-12 09:56:00,
2013-01-12 04:58:00,37.0,34.9,30.25,SSE,150,0.0,1.0,92,0.00,,,0.02,Wunderground v.1.15,2013-01-12 09:58:00,
2013-01-12 05:00:00,36.9,34.8,30.25,SSE,150,0.0,1.0,92,0.00,,,0.02,Wunderground v.1.15,2013-01-12 10:00:00,
2013-01-12 05:01:00,36.8,34.7,30.25,SSE,150,0.0,1.0,92,0.00,,,0.02,Wunderground v.1.15,2013-01-12 10:01:00,
2013-01-12 05:02:00,36.8,34.7,30.25,SSE,150,0.0,1.0,92,0.00,,,0.02,Wunderground v.1.15,2013-01-12 10:02:00,
2013-01-12 05:03:00,38.8,36.7,30.25,SSE,150,0.0,1.0,92,0.00,,,0.02,Wunderground v.1.15,2013-01-12 10:03:00,
2013-01-12 05:05:00,44.8,42.0,30.25,SSE,150,0.0,1.0,90,0.00,,,0.02,Wunderground v.1.15,2013-01-12 10:05:00,
2013-01-12 05:07:00,47.9,45.1,30.25,SSE,150,0.0,1.0,90,0.00,,,0.02,Wunderground v.1.15,2013-01-12 10:07:00,
2013-01-12 05:08:00,51.5,48.7,30.25,SSE,150,0.0,1.0,90,0.00,,,0.02,Wunderground v.1.15,2013-01-12 10:08:00,
2013-01-12 05:10:00,54.7,52.1,30.25,SSE,150,0.0,1.0,91,0.00,,,0.02,Wunderground v.1.15,2013-01-12 10:10:00,
2013-01-12 05:12:00,53.8,50.9,30.25,SSE,150,0.0,1.0,90,0.00,,,0.02,Wunderground v.1.15,2013-01-12 10:12:00,
2013-01-12 05:13:00,50.5,48.0,30.26,SSE,150,0.0,1.0,91,0.00,,,0.02,Wunderground v.1.15,2013-01-12 10:13:00,
2013-01-12 05:16:00,47.0,44.5,30.26,SSE,150,0.0,0.0,91,0.00,,,0.02,Wunderground v.1.15,2013-01-12 10:16:00,
2013-01-12 05:17:00,45.8,43.6,30.26,SSE,150,0.0,0.0,92,0.00,,,0.02,Wunderground v.1.15,2013-01-12 10:17:00,
2013-01-12 05:19:00,44.1,41.9,30.26,SSE,150,0.0,0.0,92,0.00,,,0.02,Wunderground v.1.15,2013-01-12 10:19:00,
2013-01-12 05:21:00,42.2,40.0,30.26,SSE,150,0.0,0.0,92,0.00,,,0.02,Wunderground v.1.15,2013-01-12 10:21:00,
2013-01-12 05:22:00,41.3,39.2,30.26,SSE,150,1.0,1.0,92,0.00,,,0.02,Wunderground v.1.15,2013-01-12 10:22:00,
2013-01-12 05:24:00,39.7,37.6,30.26,SSE,150,0.0,1.0,92,0.00,,,0.02,Wunderground v.1.15,2013-01-12 10:24:00,
2013-01-12 05:26:00,38.9,36.8,30.26,SSE,150,0.0,1.0,92,0.00,,,0.02,Wunderground v.1.15,2013-01-12 10:26:00,
2013-01-12 05:27:00,38.7,36.6,30.26,SSE,150,0.0,1.0,92,0.00,,,0.02,Wunderground v.1.15,2013-01-12 10:27:00,
2013-01-12 05:29:00,38.0,35.9,30.26,SSE,150,0.0,1.0,92,0.00,,,0.02,Wunderground v.1.15,2013-01-12 10:29:00,
2013-01-12 05:31:00,37.9,35.8,30.25,SSE,150,0.0,1.0,92,0.00,,,0.02,Wunderground v.1.15,2013-01-12 10:31:00,
2013-01-12 05:32:00,37.8,35.7,30.25,SSE,150,0.0,1.0,92,0.00,,,0.02,Wunderground v.1.15,2013-01-12 10:32:00,
2013-01-12 05:35:00,37.6,35.5,30.25,SSE,150,0.0,1.0,92,0.00,,,0.02,Wunderground v.1.15,2013-01-12 10:35:00,
2013-01-12 05:37:00,37.5,35.4,30.25,SSE,150,0.0,0.0,92,0.00,,,0.02,Wunderground v.1.15,2013-01-12 10:37:00,
2013-01-12 05:38:00,37.4,35.3,30.25,SSE,150,0.0,0.0,92,0.00,,,0.02,Wunderground v.1.15,2013-01-12 10:38:00,
2013-01-12 05:40:00,37.3,35.2,30.25,SSE,150,0.0,0.0,92,0.00,,,0.02,Wunderground v.1.15,2013-01-12 10:40:00,
2013-01-12 05:42:00,37.1,35.0,30.24,SSE,150,0.0,0.0,92,0.00,,,0.02,Wunderground v.1.15,2013-01-12 10:42:00,
2013-01-12 05:43:00,37.0,34.9,30.25,SSE,150,0.0,0.0,92,0.00,,,0.02,Wunderground v.1.15,2013-01-12 10:43:00,
2013-01-12 05:45:00,36.9,34.8,30.25,SSE,150,0.0,0.0,92,0.00,,,0.02,Wunderground v.1.15,2013-01-12 10:45:00,
2013-01-12 05:47:00,36.8,34.7,30.25,SSE,150,0.0,0.0,92,0.00,,,0.02,Wunderground v.1.15,2013-01-12 10:47:00,
2013-01-12 05:48:00,36.8,34.7,30.25,SSE,150,0.0,0.0,92,0.00,,,0.02,Wunderground v.1.15,2013-01-12 10:48:00,
2013-01-12 05:51:00,36.6,34.5,30.24,SSE,150,0.0,0.0,92,0.00,,,0.03,Wunderground v.1.15,2013-01-12 10:51:00,
2013-01-12 05:54:00,36.5,34.4,30.24,SSE,150,0.0,1.0,92,0.00,,,0.03,Wunderground v.1.15,2013-01-12 10:54:00,
2013-01-12 05:56:00,36.3,34.2,30.24,SSE,150,1.0,2.0,92,0.00,,,0.03,Wunderground v.1.15,2013-01-12 10:56:00,
2013-01-12 05:59:00,36.2,34.1,30.23,SSE,150,1.0,2.0,92,0.00,,,0.03,Wunderground v.1.15,2013-01-12 10:59:00,
2013-01-12 06:00:00,36.2,34.1,30.23,SSE,150,2.0,3.0,92,0.00,,,0.03,Wunderground v.1.15,2013-01-12 11:00:00,
2013-01-12 06:01:00,36.2,34.1,30.23,SSE,150,1.0,3.0,92,0.00,,,0.03,Wunderground v.1.15,2013-01-12 11:01:00,
2013-01-12 06:04:00,36.2,34.1,30.24,SSE,150,0.0,3.0,92,0.00,,,0.03,Wunderground v.1.15,2013-01-12 11:04:00,
2013-01-12 06:05:00,36.2,34.1,30.24,SSE,150,0.0,3.0,92,0.00,,,0.03,Wunderground v.1.15,2013-01-12 11:05:00,
2013-01-12 06:06:00,36.2,34.1,30.24,SSE,150,0.0,1.0,92,0.00,,,0.03,Wunderground v.1.15,2013-01-12 11:06:00,
2013-01-12 06:09:00,36.2,34.1,30.24,SSE,150,2.0,3.0,92,0.00,,,0.03,Wunderground v.1.15,2013-01-12 11:09:00,
2013-01-12 06:10:00,36.2,34.1,30.24,SSE,150,0.0,3.0,92,0.00,,,0.03,Wunderground v.1.15,2013-01-12 11:10:00,
2013-01-12 06:11:00,36.2,34.1,30.24,SSE,150,1.0,3.0,92,0.00,,,0.03,Wunderground v.1.15,2013-01-12 11:11:00,
2013-01-12 06:14:00,36.3,34.2,30.24,SSE,150,1.0,3.0,92,0.00,,,0.03,Wunderground v.1.15,2013-01-12 11:14:00,
2013-01-12 06:16:00,36.2,34.1,30.24,SSE,150,0.0,1.0,92,0.00,,,0.03,Wunderground v.1.15,2013-01-12 11:16:00,
2013-01-12 06:17:00,36.3,34.2,30.24,SSE,150,1.0,2.0,92,0.00,,,0.03,Wunderground v.1.15,2013-01-12 11:17:00,
2013-01-12 06:19:00,36.2,34.1,30.24,SSE,150,0.0,2.0,92,0.00,,,0.03,Wunderground v.1.15,2013-01-12 11:19:00,
2013-01-12 06:21:00,36.2,34.1,30.24,SSE,150,2.0,2.0,92,0.00,,,0.03,Wunderground v.1.15,2013-01-12 11:21:00,
2013-01-12 06:22:00,36.2,34.1,30.24,SSE,150,2.0,2.0,92,0.00,,,0.03,Wunderground v.1.15,2013-01-12 11:22:00,
2013-01-12 06:24:00,36.2,34.1,30.23,SSE,150,2.0,2.0,92,0.00,,,0.03,Wunderground v.1.15,2013-01-12 11:24:00,
2013-01-12 06:27:00,36.2,34.1,30.24,SSE,150,0.0,1.0,92,0.00,,,0.03,Wunderground v.1.15,2013-01-12 11:27:00,
2013-01-12 06:29:00,36.3,34.2,30.24,SSE,150,0.0,2.0,92,0.00,,,0.03,Wunderground v.1.15,2013-01-12 11:29:00,
2013-01-12 06:32:00,36.3,34.2,30.24,SSE,150,0.0,2.0,92,0.00,,,0.03,Wunderground v.1.15,2013-01-12 11:32:00,
2013-01-12 06:34:00,36.3,34.2,30.24,SSE,150,0.0,2.0,92,0.00,,,0.03,Wunderground v.1.15,2013-01-12 11:34:00,
2013-01-12 06:37:00,36.3,34.2,30.24,SSE,150,0.0,0.0,92,0.00,,,0.03,Wunderground v.1.15,2013-01-12 11:37:00,
2013-01-12 06:38:00,36.3,34.2,30.24,SSE,150,0.0,0.0,92,0.00,,,0.03,Wunderground v.1.15,2013-01-12 11:38:00,
2013-01-12 06:39:00,36.3,34.2,30.25,SSE,150,0.0,0.0,92,0.00,,,0.03,Wunderground v.1.15,2013-01-12 11:39:00,
2013-01-12 06:43:00,36.2,34.1,30.25,SSE,150,0.0,0.0,92,0.00,,,0.03,Wunderground v.1.15,2013-01-12 11:43:00,
2013-01-12 06:44:00,36.5,34.4,30.25,SSE,150,0.0,1.0,92,0.00,,,0.03,Wunderground v.1.15,2013-01-12 11:44:00,
2013-01-12 06:48:00,40.9,38.5,30.25,SSE,150,0.0,0.0,91,0.00,,,0.03,Wunderground v.1.15,2013-01-12 11:48:00,
2013-01-12 06:49:00,42.9,40.5,30.25,SSE,150,0.0,0.0,91,0.00,,,0.03,Wunderground v.1.15,2013-01-12 11:49:00,
2013-01-12 06:50:00,44.9,42.4,30.25,SSE,150,0.0,0.0,91,0.00,,,0.03,Wunderground v.1.15,2013-01-12 11:50:00,
2013-01-12 06:53:00,48.1,45.3,30.25,SSE,150,0.0,0.0,90,0.00,,,0.03,Wunderground v.1.15,2013-01-12 11:53:00,
2013-01-12 06:54:00,47.6,45.1,30.25,SSE,150,0.0,0.0,91,0.00,,,0.03,Wunderground v.1.15,2013-01-12 11:54:00,
2013-01-12 06:55:00,47.1,44.6,30.26,SSE,150,0.0,2.0,91,0.00,,,0.03,Wunderground v.1.15,2013-01-12 11:55:00,
2013-01-12 06:58:00,49.6,46.8,30.25,SSE,150,0.0,1.0,90,0.00,,,0.03,Wunderground v.1.15,2013-01-12 11:58:00,
2013-01-12 06:59:00,50.3,47.5,30.25,SSE,150,0.0,1.0,90,0.00,,,0.03,Wunderground v.1.15,2013-01-12 11:59:00,
2013-01-12 07:01:00,50.3,47.8,30.25,SSE,150,0.0,1.0,91,0.00,,,0.03,Wunderground v.1.15,2013-01-12 12:01:00,
2013-01-12 07:03:00,48.4,45.9,30.25,SSE,150,0.0,1.0,91,0.00,,,0.03,Wunderground v.1.15,2013-01-12 12:03:00,
2013-01-12 07:04:00,46.6,44.1,30.26,SSE,150,1.0,1.0,91,0.00,,,0.03,Wunderground v.1.15,2013-01-12 12:04:00,
2013-01-12 07:06:00,44.6,42.1,30.26,SSE,150,1.0,1.0,91,0.00,,,0.03,Wunderground v.1.15,2013-01-12 12:06:00,
2013-01-12 07:08:00,42.1,39.7,30.26,SSE,150,1.0,2.0,91,0.00,,,0.03,Wunderground v.1.15,2013-01-12 12:08:00,
2013-01-12 07:09:00,41.7,39.3,30.26,SSE,150,1.0,2.0,91,0.00,,,0.03,Wunderground v.1.15,2013-01-12 12:09:00,
2013-01-12 07:11:00,42.0,39.6,30.27,SSE,150,1.0,2.0,91,0.00,,,0.03,Wunderground v.1.15,2013-01-12 12:11:00,
2013-01-12 07:13:00,42.7,40.3,30.27,SSE,150,0.0,2.0,91,0.00,,,0.03,Wunderground v.1.15,2013-01-12 12:13:00,
2013-01-12 07:14:00,42.7,40.3,30.27,SSE,150,0.0,2.0,91,0.00,,,0.03,Wunderground v.1.15,2013-01-12 12:14:00,
2013-01-12 07:15:00,43.1,40.7,30.27,SSE,150,0.0,2.0,91,0.00,,,0.03,Wunderground v.1.15,2013-01-12 12:15:00,
2013-01-12 07:16:00,42.7,40.3,30.27,SSE,150,0.0,2.0,91,0.00,,,0.03,Wunderground v.1.15,2013-01-12 12:16:00,
2013-01-12 07:19:00,40.9,38.8,30.27,SSE,150,0.0,2.0,92,0.00,,,0.03,Wunderground v.1.15,2013-01-12 12:19:00,
2013-01-12 07:21:00,40.0,37.9,30.27,SSE,150,0.0,2.0,92,0.00,,,0.03,Wunderground v.1.15,2013-01-12 12:21:00,
2013-01-12 07:24:00,38.9,36.8,30.27,SSE,150,0.0,2.0,92,0.00,,,0.03,Wunderground v.1.15,2013-01-12 12:24:00,
2013-01-12 07:26:00,38.2,36.1,30.27,SSE,150,1.0,1.0,92,0.00,,,0.03,Wunderground v.1.15,2013-01-12 12:26:00,
2013-01-12 07:27:00,38.0,35.9,30.27,SSE,150,0.0,1.0,92,0.00,,,0.03,Wunderground v.1.15,2013-01-12 12:27:00,
2013-01-12 07:29:00,37.4,35.3,30.27,SSE,150,0.0,1.0,92,0.00,,,0.03,Wunderground v.1.15,2013-01-12 12:29:00,
2013-01-12 07:31:00,36.9,34.8,30.27,SSE,150,0.0,1.0,92,0.00,,,0.03,Wunderground v.1.15,2013-01-12 12:31:00,
2013-01-12 07:32:00,36.7,34.6,30.27,SSE,150,0.0,1.0,92,0.00,,,0.03,Wunderground v.1.15,2013-01-12 12:32:00,
2013-01-12 07:34:00,36.4,34.3,30.27,SSE,150,0.0,1.0,92,0.00,,,0.03,Wunderground v.1.15,2013-01-12 12:34:00,
2013-01-12 07:35:00,36.2,34.1,30.27,SSE,150,1.0,2.0,92,0.00,,,0.03,Wunderground v.1.15,2013-01-12 12:35:00,
2013-01-12 07:37:00,36.1,34.0,30.27,SSE,150,1.0,1.0,92,0.00,,,0.03,Wunderground v.1.15,2013-01-12 12:37:00,
2013-01-12 07:39:00,35.9,33.8,30.28,SSE,150,1.0,1.0,92,0.00,,,0.03,Wunderground v.1.15,2013-01-12 12:39:00,
2013-01-12 07:40:00,35.9,33.8,30.28,SSE,150,0.0,1.0,92,0.00,,,0.03,Wunderground v.1.15,2013-01-12 12:40:00,
2013-01-12 07:42:00,35.9,33.8,30.27,SSE,150,0.0,1.0,92,0.00,,,0.03,Wunderground v.1.15,2013-01-12 12:42:00,
2013-01-12 07:44:00,35.9,33.8,30.27,SSE,150,0.0,1.0,92,0.00,,,0.03,Wunderground v.1.15,2013-01-12 12:44:00,
2013-01-12 07:46:00,35.9,33.8,30.27,SSE,150,0.0,1.0,92,0.00,,,0.03,Wunderground v.1.15,2013-01-12 12:46:00,
2013-01-12 07:47:00,35.9,33.8,30.27,SSE,150,1.0,1.0,92,0.00,,,0.03,Wunderground v.1.15,2013-01-12 12:47:00,
2013-01-12 07:49:00,36.0,33.9,30.27,SSE,150,0.0,1.0,92,0.00,,,0.04,Wunderground v.1.15,2013-01-12 12:49:00,
2013-01-12 07:51:00,36.0,33.9,30.27,SSE,150,0.0,1.0,92,0.00,,,0.04,Wunderground v.1.15,2013-01-12 12:51:00,
2013-01-12 07:52:00,36.1,34.0,30.27,SSE,150,0.0,1.0,92,0.00,,,0.04,Wunderground v.1.15,2013-01-12 12:52:00,
2013-01-12 07:53:00,36.0,33.9,30.27,SSE,150,0.0,1.0,92,0.00,,,0.04,Wunderground v.1.15,2013-01-12 12:53:00,
2013-01-12 07:54:00,36.1,34.0,30.28,SSE,150,0.0,1.0,92,0.00,,,0.04,Wunderground v.1.15,2013-01-12 12:54:00,
2013-01-12 07:57:00,36.1,34.0,30.27,SSE,150,0.0,0.0,92,0.00,,,0.04,Wunderground v.1.15,2013-01-12 12:57:00,
2013-01-12 07:58:00,36.1,34.0,30.27,SSE,150,0.0,0.0,92,0.00,,,0.04,Wunderground v.1.15,2013-01-12 12:58:00,
2013-01-12 08:00:00,36.0,33.9,30.27,SSE,150,0.0,0.0,92,0.00,,,0.04,Wunderground v.1.15,2013-01-12 13:00:00,
2013-01-12 08:02:00,36.0,33.9,30.27,SSE,150,0.0,0.0,92,0.00,,,0.04,Wunderground v.1.15,2013-01-12 13:02:00,
2013-01-12 08:03:00,36.0,33.9,30.27,SSE,150,0.0,0.0,92,0.00,,,0.04,Wunderground v.1.15,2013-01-12 13:03:00,
2013-01-12 08:05:00,36.0,33.9,30.27,SSE,150,0.0,0.0,92,0.00,,,0.04,Wunderground v.1.15,2013-01-12 13:05:00,
2013-01-12 08:07:00,36.0,33.9,30.27,SSE,150,0.0,0.0,92,0.00,,,0.04,Wunderground v.1.15,2013-01-12 13:07:00,
2013-01-12 08:08:00,36.0,33.9,30.27,SSE,150,0.0,0.0,92,0.00,,,0.04,Wunderground v.1.15,2013-01-12 13:08:00,
2013-01-12 08:10:00,36.1,34.0,30.27,SSE,150,0.0,0.0,92,0.00,,,0.04,Wunderground v.1.15,2013-01-12 13:10:00,
2013-01-12 08:13:00,36.1,34.0,30.27,SSE,150,0.0,0.0,92,0.00,,,0.04,Wunderground v.1.15,2013-01-12 13:13:00,
2013-01-12 08:14:00,36.1,34.0,30.27,SSE,150,0.0,1.0,92,0.00,,,0.04,Wunderground v.1.15,2013-01-12 13:14:00,
2013-01-12 08:16:00,36.1,34.0,30.27,SSE,150,0.0,1.0,92,0.00,,,0.04,Wunderground v.1.15,2013-01-12 13:16:00,
2013-01-12 08:18:00,36.1,34.0,30.27,SSE,150,0.0,0.0,92,0.00,,,0.04,Wunderground v.1.15,2013-01-12 13:18:00,
2013-01-12 08:19:00,36.0,33.9,30.27,SSE,150,0.0,0.0,92,0.00,,,0.04,Wunderground v.1.15,2013-01-12 13:19:00,
2013-01-12 08:21:00,36.0,33.9,30.27,SSE,150,0.0,0.0,92,0.00,,,0.04,Wunderground v.1.15,2013-01-12 13:21:00,
2013-01-12 08:23:00,36.1,34.0,30.27,SSE,150,1.0,2.0,92,0.00,,,0.04,Wunderground v.1.15,2013-01-12 13:23:00,
2013-01-12 08:24:00,36.5,34.4,30.27,SSE,150,0.0,2.0,92,0.00,,,0.04,Wunderground v.1.15,2013-01-12 13:24:00,
2013-01-12 08:26:00,38.2,36.1,30.28,SSE,150,1.0,2.0,92,0.00,,,0.04,Wunderground v.1.15,2013-01-12 13:26:00,
2013-01-12 08:28:00,39.8,37.4,30.28,SSE,150,0.0,2.0,91,0.00,,,0.04,Wunderground v.1.15,2013-01-12 13:28:00,
2013-01-12 08:29:00,40.2,38.1,30.28,SSE,150,1.0,2.0,92,0.00,,,0.04,Wunderground v.1.15,2013-01-12 13:29:00,
2013-01-12 08:30:00,40.4,38.3,30.28,SSE,150,2.0,2.0,92,0.00,,,0.04,Wunderground v.1.15,2013-01-12 13:30:00,
2013-01-12 08:31:00,40.4,38.3,30.28,SSE,150,2.0,3.0,92,0.00,,,0.04,Wunderground v.1.15,2013-01-12 13:31:00,
2013-01-12 08:33:00,39.4,37.3,30.29,SSE,150,1.0,3.0,92,0.00,,,0.04,Wunderground v.1.15,2013-01-12 13:33:00,
2013-01-12 08:34:00,39.3,37.2,30.29,SSE,150,1.0,3.0,92,0.00,,,0.04,Wunderground v.1.15,2013-01-12 13:34:00,
2013-01-12 08:35:00,39.1,37.0,30.29,SSE,150,1.0,3.0,92,0.00,,,0.04,Wunderground v.1.15,2013-01-12 13:35:00,
2013-01-12 08:36:00,39.2,37.1,30.29,SSE,150,1.0,3.0,92,0.00,,,0.04,Wunderground v.1.15,2013-01-12 13:36:00,
2013-01-12 08:39:00,39.5,37.4,30.28,SSE,150,1.0,1.0,92,0.00,,,0.04,Wunderground v.1.15,2013-01-12 13:39:00,
2013-01-12 08:40:00,40.1,37.7,30.28,SSE,150,0.0,1.0,91,0.00,,,0.04,Wunderground v.1.15,2013-01-12 13:40:00,
2013-01-12 08:41:00,40.2,37.8,30.28,SSE,150,0.0,2.0,91,0.00,,,0.04,Wunderground v.1.15,2013-01-12 13:41:00,
2013-01-12 08:44:00,41.5,39.1,30.28,SSE,150,0.0,2.0,91,0.00,,,0.05,Wunderground v.1.15,2013-01-12 13:44:00,
2013-01-12 08:45:00,42.9,40.5,30.28,SSE,150,0.0,2.0,91,0.00,,,0.05,Wunderground v.1.15,2013-01-12 13:45:00,
2013-01-12 08:46:00,43.4,40.9,30.28,SSE,150,0.0,1.0,91,0.00,,,0.05,Wunderground v.1.15,2013-01-12 13:46:00,
2013-01-12 08:49:00,44.3,41.8,30.28,SSE,150,0.0,1.0,91,0.00,,,0.05,Wunderground v.1.15,2013-01-12 13:49:00,
2013-01-12 08:50:00,44.3,41.8,30.28,SSE,150,0.0,1.0,91,0.00,,,0.05,Wunderground v.1.15,2013-01-12 13:50:00,
2013-01-12 08:51:00,44.1,41.6,30.28,SSE,150,0.0,1.0,91,0.00,,,0.05,Wunderground v.1.15,2013-01-12 13:51:00,
2013-01-12 08:52:00,43.7,41.2,30.27,SSE,150,0.0,1.0,91,0.00,,,0.05,Wunderground v.1.15,2013-01-12 13:52:00,
2013-01-12 08:55:00,41.9,39.5,30.27,SSE,150,0.0,1.0,91,0.00,,,0.05,Wunderground v.1.15,2013-01-12 13:55:00,
2013-01-12 08:56:00,41.4,39.3,30.27,SSE,150,0.0,0.0,92,0.00,,,0.05,Wunderground v.1.15,2013-01-12 13:56:00,
2013-01-12 08:57:00,41.1,39.0,30.27,SSE,150,0.0,0.0,92,0.00,,,0.05,Wunderground v.1.15,2013-01-12 13:57:00,
2013-01-12 09:00:00,40.1,38.0,30.26,SSE,150,0.0,0.0,92,0.00,,,0.05,Wunderground v.1.15,2013-01-12 14:00:00,
2013-01-12 09:01:00,40.0,37.6,30.26,SSE,150,0.0,0.0,91,0.00,,,0.05,Wunderground v.1.15,2013-01-12 14:01:00,
2013-01-12 09:02:00,39.7,37.3,30.26,SSE,150,0.0,0.0,91,0.00,,,0.05,Wunderground v.1.15,2013-01-12 14:02:00,
2013-01-12 09:05:00,38.9,36.8,30.26,SSE,150,1.0,1.0,92,0.00,,,0.05,Wunderground v.1.15,2013-01-12 14:05:00,
2013-01-12 09:06:00,38.7,36.6,30.26,SSE,150,0.0,1.0,92,0.00,,,0.05,Wunderground v.1.15,2013-01-12 14:06:00,
2013-01-12 09:07:00,38.6,36.5,30.26,SSE,150,1.0,1.0,92,0.00,,,0.05,Wunderground v.1.15,2013-01-12 14:07:00,
2013-01-12 09:11:00,37.9,35.8,30.27,SSE,150,2.0,3.0,92,0.00,,,0.05,Wunderground v.1.15,2013-01-12 14:11:00,
2013-01-12 09:12:00,37.7,35.6,30.27,SSE,150,3.0,3.0,92,0.00,,,0.05,Wunderground v.1.15,2013-01-12 14:12:00,
2013-01-12 09:16:00,37.4,35.3,30.27,SSE,150,2.0,2.0,92,0.00,,,0.05,Wunderground v.1.15,2013-01-12 14:16:00,
2013-01-12 09:17:00,37.4,35.3,30.27,SSE,150,2.0,3.0,92,0.00,,,0.05,Wunderground v.1.15,2013-01-12 14:17:00,
2013-01-12 09:21:00,37.1,35.0,30.27,SSE,150,1.0,3.0,92,0.00,,,0.05,Wunderground v.1.15,2013-01-12 14:21:00,
2013-01-12 09:22:00,37.1,35.0,30.27,SSE,150,0.0,3.0,92,0.00,,,0.05,Wunderground v.1.15,2013-01-12 14:22:00,
2013-01-12 09:26:00,37.2,35.1,30.27,SSE,150,1.0,1.0,92,0.00,,,0.05,Wunderground v.1.15,2013-01-12 14:26:00,
2013-01-12 09:27:00,37.2,35.1,30.27,SSE,150,0.0,1.0,92,0.00,,,0.05,Wunderground v.1.15,2013-01-12 14:27:00,
2013-01-12 09:28:00,37.3,35.2,30.27,SSE,150,0.0,1.0,92,0.00,,,0.05,Wunderground v.1.15,2013-01-12 14:28:00,
2013-01-12 09:32:00,37.3,35.2,30.27,SSE,150,0.0,2.0,92,0.00,,,0.05,Wunderground v.1.15,2013-01-12 14:32:00,
2013-01-12 09:33:00,37.2,35.1,30.28,SSE,150,1.0,2.0,92,0.00,,,0.05,Wunderground v.1.15,2013-01-12 14:33:00,
2013-01-12 09:37:00,37.3,35.2,30.28,SSE,150,1.0,1.0,92,0.00,,,0.05,Wunderground v.1.15,2013-01-12 14:37:00,
2013-01-12 09:38:00,37.3,35.2,30.28,SSE,150,1.0,1.0,92,0.00,,,0.05,Wunderground v.1.15,2013-01-12 14:38:00,
2013-01-12 09:39:00,37.4,35.3,30.28,SSE,150,0.0,1.0,92,0.00,,,0.05,Wunderground v.1.15,2013-01-12 14:39:00,
2013-01-12 09:40:00,37.4,35.3,30.28,SSE,150,1.0,1.0,92,0.00,,,0.05,Wunderground v.1.15,2013-01-12 14:40:00,
2013-01-12 09:42:00,37.4,35.3,30.28,SSE,150,1.0,2.0,92,0.00,,,0.05,Wunderground v.1.15,2013-01-12 14:42:00,
2013-01-12 09:43:00,37.4,35.3,30.28,SSE,150,1.0,2.0,92,0.00,,,0.05,Wunderground v.1.15,2013-01-12 14:43:00,
2013-01-12 09:44:00,37.5,35.4,30.28,SSE,150,1.0,2.0,92,0.00,,,0.05,Wunderground v.1.15,2013-01-12 14:44:00,
2013-01-12 09:45:00,37.5,35.4,30.28,SSE,150,1.0,2.0,92,0.00,,,0.05,Wunderground v.1.15,2013-01-12 14:45:00,
2013-01-12 09:48:00,37.6,35.5,30.28,SSE,150,0.0,2.0,92,0.00,,,0.05,Wunderground v.1.15,2013-01-12 14:48:00,
2013-01-12 09:49:00,37.6,35.5,30.28,SSE,150,0.0,2.0,92,0.00,,,0.05,Wunderground v.1.15,2013-01-12 14:49:00,
2013-01-12 09:50:00,37.7,35.6,30.28,SSE,150,0.0,2.0,92,0.00,,,0.05,Wunderground v.1.15,2013-01-12 14:50:00,
2013-01-12 09:53:00,37.8,35.7,30.28,SSE,150,2.0,2.0,92,0.00,,,0.05,Wunderground v.1.15,2013-01-12 14:53:00,
2013-01-12 09:54:00,37.8,35.7,30.28,SSE,150,0.0,2.0,92,0.00,,,0.05,Wunderground v.1.15,2013-01-12 14:54:00,
2013-01-12 09:55:00,37.8,35.7,30.28,SSE,150,1.0,2.0,92,0.00,,,0.05,Wunderground v.1.15,2013-01-12 14:55:00,
2013-01-12 09:58:00,37.9,35.8,30.28,SSE,150,0.0,2.0,92,0.00,,,0.05,Wunderground v.1.15,2013-01-12 14:58:00,
2013-01-12 09:59:00,37.9,35.8,30.28,SSE,150,0.0,2.0,92,0.00,,,0.05,Wunderground v.1.15,2013-01-12 14:59:00,
2013-01-12 10:01:00,38.0,35.9,30.28,SSE,150,0.0,2.0,92,0.00,,,0.05,Wunderground v.1.15,2013-01-12 15:01:00,
2013-01-12 10:03:00,38.0,35.9,30.27,SSE,150,0.0,2.0,92,0.00,,,0.05,Wunderground v.1.15,2013-01-12 15:03:00,
2013-01-12 10:04:00,38.2,36.1,30.27,SSE,150,0.0,2.0,92,0.00,,,0.05,Wunderground v.1.15,2013-01-12 15:04:00,
2013-01-12 10:06:00,38.3,36.2,30.27,SSE,150,0.0,0.0,92,0.00,,,0.05,Wunderground v.1.15,2013-01-12 15:06:00,
2013-01-12 10:09:00,38.4,36.3,30.28,SSE,150,0.0,1.0,92,0.00,,,0.05,Wunderground v.1.15,2013-01-12 15:09:00,
2013-01-12 10:10:00,38.5,36.4,30.28,SSE,150,0.0,1.0,92,0.00,,,0.05,Wunderground v.1.15,2013-01-12 15:10:00,
2013-01-12 10:11:00,38.6,36.5,30.28,SSE,150,1.0,1.0,92,0.00,,,0.05,Wunderground v.1.15,2013-01-12 15:11:00,
2013-01-12 10:14:00,38.6,36.5,30.28,SSE,150,1.0,2.0,92,0.00,,,0.05,Wunderground v.1.15,2013-01-12 15:14:00,
2013-01-12 10:15:00,38.6,36.5,30.28,SSE,150,1.0,2.0,92,0.00,,,0.05,Wunderground v.1.15,2013-01-12 15:15:00,
2013-01-12 10:16:00,38.6,36.5,30.28,SSE,150,0.0,2.0,92,0.00,,,0.05,Wunderground v.1.15,2013-01-12 15:16:00,
2013-01-12 10:19:00,38.4,36.3,30.28,SSE,150,0.0,1.0,92,0.00,,,0.05,Wunderground v.1.15,2013-01-12 15:19:00,
2013-01-12 10:20:00,38.4,36.3,30.28,SSE,150,1.0,1.0,92,0.00,,,0.05,Wunderground v.1.15,2013-01-12 15:20:00,
2013-01-12 10:21:00,38.4,36.3,30.28,SSE,150,1.0,1.0,92,0.00,,,0.05,Wunderground v.1.15,2013-01-12 15:21:00,
2013-01-12 10:24:00,38.4,36.3,30.28,SSE,150,0.0,2.0,92,0.00,,,0.05,Wunderground v.1.15,2013-01-12 15:24:00,
2013-01-12 10:25:00,38.4,36.3,30.28,SSE,150,0.0,2.0,92,0.00,,,0.05,Wunderground v.1.15,2013-01-12 15:25:00,
2013-01-12 10:26:00,38.4,36.3,30.28,SSE,150,0.0,0.0,92,0.00,,,0.05,Wunderground v.1.15,2013-01-12 15:26:00,
2013-01-12 10:29:00,38.6,36.5,30.27,SSE,150,0.0,2.0,92,0.00,,,0.05,Wunderground v.1.15,2013-01-12 15:29:00,
2013-01-12 10:31:00,38.6,36.5,30.27,SSE,150,2.0,2.0,92,0.00,,,0.05,Wunderground v.1.15,2013-01-12 15:31:00,
2013-01-12 10:32:00,38.6,36.5,30.27,SSE,150,2.0,2.0,92,0.00,,,0.05,Wunderground v.1.15,2013-01-12 15:32:00,
2013-01-12 10:35:00,38.6,36.5,30.28,SSE,150,2.0,3.0,92,0.00,,,0.05,Wunderground v.1.15,2013-01-12 15:35:00,
2013-01-12 10:36:00,38.5,36.4,30.28,SSE,150,2.0,2.0,92,0.00,,,0.05,Wunderground v.1.15,2013-01-12 15:36:00,
2013-01-12 10:37:00,38.4,36.3,30.28,SSE,150,1.0,3.0,92,0.00,,,0.05,Wunderground v.1.15,2013-01-12 15:37:00,
2013-01-12 10:40:00,38.2,36.1,30.27,SSE,150,0.0,3.0,92,0.00,,,0.05,Wunderground v.1.15,2013-01-12 15:40:00,
2013-01-12 10:41:00,38.2,36.1,30.27,SSE,150,0.0,3.0,92,0.00,,,0.05,Wunderground v.1.15,2013-01-12 15:41:00,
2013-01-12 10:42:00,38.2,36.1,30.27,SSE,150,0.0,3.0,92,0.00,,,0.05,Wunderground v.1.15,2013-01-12 15:42:00,
2013-01-12 10:45:00,38.2,36.1,30.27,SSE,150,1.0,3.0,92,0.00,,,0.05,Wunderground v.1.15,2013-01-12 15:45:00,
2013-01-12 10:46:00,38.1,36.0,30.28,SSE,150,2.0,2.0,92,0.00,,,0.05,Wunderground v.1.15,2013-01-12 15:46:00,
2013-01-12 10:47:00,38.1,36.0,30.28,SSE,150,0.0,2.0,92,0.00,,,0.05,Wunderground v.1.15,2013-01-12 15:47:00,
2013-01-12 10:50:00,38.0,35.9,30.28,West,264,3.0,4.0,92,0.00,,,0.05,Wunderground v.1.15,2013-01-12 15:50:00,
2013-01-12 10:51:00,38.0,35.9,30.28,West,279,3.0,4.0,92,0.00,,,0.05,Wunderground v.1.15,2013-01-12 15:51:00,
2013-01-12 10:52:00,38.0,35.9,30.28,West,280,2.0,4.0,92,0.00,,,0.05,Wunderground v.1.15,2013-01-12 15:52:00,
2013-01-12 10:56:00,38.0,35.9,30.26,NW,305,0.0,2.0,92,0.00,,,0.05,Wunderground v.1.15,2013-01-12 15:56:00,
2013-01-12 10:57:00,38.0,35.9,30.26,NW,305,0.0,2.0,92,0.00,,,0.05,Wunderground v.1.15,2013-01-12 15:57:00,
2013-01-12 11:02:00,38.1,36.0,30.25,NW,305,1.0,2.0,92,0.00,,,0.05,Wunderground v.1.15,2013-01-12 16:02:00,
2013-01-12 11:03:00,38.2,36.1,30.25,NW,305,0.0,2.0,92,0.00,,,0.05,Wunderground v.1.15,2013-01-12 16:03:00,
2013-01-12 11:07:00,38.5,36.4,30.25,NW,305,0.0,1.0,92,0.00,,,0.05,Wunderground v.1.15,2013-01-12 16:07:00,
2013-01-12 11:08:00,38.5,36.4,30.25,NW,305,0.0,1.0,92,0.00,,,0.05,Wunderground v.1.15,2013-01-12 16:08:00,
2013-01-12 11:12:00,38.4,36.3,30.26,NW,305,0.0,3.0,92,0.00,,,0.05,Wunderground v.1.15,2013-01-12 16:12:00,
2013-01-12 11:13:00,38.4,36.3,30.26,NW,305,0.0,3.0,92,0.00,,,0.05,Wunderground v.1.15,2013-01-12 16:13:00,
2013-01-12 11:14:00,38.4,36.3,30.26,NW,305,0.0,3.0,92,0.00,,,0.05,Wunderground v.1.15,2013-01-12 16:14:00,
2013-01-12 11:17:00,38.5,36.4,30.25,NW,305,0.0,1.0,92,0.00,,,0.05,Wunderground v.1.15,2013-01-12 16:17:00,
2013-01-12 11:18:00,38.6,36.5,30.25,NW,305,0.0,1.0,92,0.00,,,0.05,Wunderground v.1.15,2013-01-12 16:18:00,
2013-01-12 11:19:00,38.6,36.5,30.25,NW,305,0.0,1.0,92,0.00,,,0.05,Wunderground v.1.15,2013-01-12 16:19:00,
2013-01-12 11:22:00,38.7,36.6,30.25,NW,305,0.0,1.0,92,0.00,,,0.05,Wunderground v.1.15,2013-01-12 16:22:00,
2013-01-12 11:23:00,38.7,36.6,30.25,NW,305,0.0,1.0,92,0.00,,,0.05,Wunderground v.1.15,2013-01-12 16:23:00,
2013-01-12 11:24:00,38.8,36.7,30.25,NW,305,0.0,1.0,92,0.00,,,0.05,Wunderground v.1.15,2013-01-12 16:24:00,
2013-01-12 11:28:00,38.9,36.8,30.24,NW,305,1.0,2.0,92,0.00,,,0.05,Wunderground v.1.15,2013-01-12 16:28:00,
2013-01-12 11:29:00,38.9,36.8,30.24,NW,305,1.0,2.0,92,0.00,,,0.05,Wunderground v.1.15,2013-01-12 16:29:00,
2013-01-12 11:33:00,38.9,36.8,30.24,North,350,2.0,3.0,92,0.00,,,0.05,Wunderground v.1.15,2013-01-12 16:33:00,
2013-01-12 11:34:00,38.8,36.7,30.24,North,5,0.0,3.0,92,0.00,,,0.05,Wunderground v.1.15,2013-01-12 16:34:00,
2013-01-12 11:35:00,38.8,36.7,30.24,North,5,1.0,3.0,92,0.00,,,0.05,Wunderground v.1.15,2013-01-12 16:35:00,
2013-01-12 11:38:00,38.9,36.8,30.24,North,5,0.0,1.0,92,0.00,,,0.05,Wunderground v.1.15,2013-01-12 16:38:00,
2013-01-12 11:39:00,39.0,36.9,30.24,North,5,0.0,1.0,92,0.00,,,0.05,Wunderground v.1.15,2013-01-12 16:39:00,
2013-01-12 11:40:00,39.0,36.9,30.24,North,5,0.0,1.0,92,0.00,,,0.05,Wunderground v.1.15,2013-01-12 16:40:00,
2013-01-12 11:43:00,39.2,37.1,30.24,North,5,1.0,2.0,92,0.00,,,0.05,Wunderground v.1.15,2013-01-12 16:43:00,
2013-01-12 11:45:00,39.2,37.1,30.25,North,5,0.0,2.0,92,0.00,,,0.05,Wunderground v.1.15,2013-01-12 16:45:00,
2013-01-12 11:48:00,39.1,37.0,30.24,North,5,1.0,1.0,92,0.00,,,0.05,Wunderground v.1.15,2013-01-12 16:48:00,
2013-01-12 11:49:00,39.1,37.0,30.24,North,5,2.0,2.0,92,0.00,,,0.05,Wunderground v.1.15,2013-01-12 16:49:00,
2013-01-12 11:50:00,39.1,37.0,30.23,North,5,0.0,2.0,92,0.00,,,0.05,Wunderground v.1.15,2013-01-12 16:50:00,
2013-01-12 11:54:00,38.9,36.8,30.22,ENE,67,2.0,4.0,92,0.00,,,0.05,Wunderground v.1.15,2013-01-12 16:54:00,
2013-01-12 11:55:00,38.9,36.8,30.22,ENE,67,0.0,4.0,92,0.00,,,0.05,Wunderground v.1.15,2013-01-12 16:55:00,
2013-01-12 11:56:00,38.9,36.8,30.22,ENE,67,0.0,1.0,92,0.00,,,0.05,Wunderground v.1.15,2013-01-12 16:56:00,
2013-01-12 11:59:00,39.0,36.9,30.23,ENE,67,0.0,1.0,92,0.00,,,0.05,Wunderground v.1.15,2013-01-12 16:59:00,
2013-01-12 12:00:00,39.0,36.9,30.23,ENE,67,0.0,1.0,92,0.00,,,0.05,Wunderground v.1.15,2013-01-12 17:00:00,
2013-01-12 12:01:00,39.1,37.0,30.23,ENE,67,0.0,1.0,92,0.00,,,0.05,Wunderground v.1.15,2013-01-12 17:01:00,
2013-01-12 12:04:00,39.0,36.9,30.22,ENE,67,1.0,2.0,92,0.00,,,0.05,Wunderground v.1.15,2013-01-12 17:04:00,
2013-01-12 12:05:00,39.0,36.9,30.22,ENE,67,2.0,3.0,92,0.00,,,0.05,Wunderground v.1.15,2013-01-12 17:05:00,
2013-01-12 12:06:00,39.0,36.9,30.22,ENE,67,0.0,2.0,92,0.00,,,0.05,Wunderground v.1.15,2013-01-12 17:06:00,
2013-01-12 12:09:00,39.1,37.0,30.22,ENE,71,0.0,3.0,92,0.00,,,0.05,Wunderground v.1.15,2013-01-12 17:09:00,
2013-01-12 12:10:00,39.1,37.0,30.22,ENE,71,2.0,3.0,92,0.00,,,0.05,Wunderground v.1.15,2013-01-12 17:10:00,
2013-01-12 12:11:00,39.2,37.1,30.22,ENE,71,0.0,3.0,92,0.00,,,0.05,Wunderground v.1.15,2013-01-12 17:11:00,
2013-01-12 12:12:00,39.2,37.1,30.22,ENE,71,0.0,3.0,92,0.00,,,0.05,Wunderground v.1.15,2013-01-12 17:12:00,
2013-01-12 12:14:00,39.2,37.1,30.22,ENE,74,0.0,3.0,92,0.00,,,0.05,Wunderground v.1.15,2013-01-12 17:14:00,
2013-01-12 12:15:00,39.2,37.1,30.22,ENE,74,0.0,3.0,92,0.00,,,0.05,Wunderground v.1.15,2013-01-12 17:15:00,
2013-01-12 12:17:00,39.3,37.2,30.22,ENE,74,0.0,2.0,92,0.00,,,0.05,Wunderground v.1.15,2013-01-12 17:17:00,
2013-01-12 12:20:00,39.3,36.9,30.23,ESE,113,2.0,2.0,91,0.00,,,0.05,Wunderground v.1.15,2013-01-12 17:20:00,
2013-01-12 12:22:00,39.4,37.0,30.23,ESE,113,0.0,2.0,91,0.00,,,0.05,Wunderground v.1.15,2013-01-12 17:22:00,
2013-01-12 12:25:00,39.4,37.0,30.22,ESE,113,1.0,2.0,91,0.00,,,0.05,Wunderground v.1.15,2013-01-12 17:25:00,
2013-01-12 12:27:00,39.5,37.1,30.22,ESE,114,1.0,2.0,91,0.00,,,0.05,Wunderground v.1.15,2013-01-12 17:27:00,
2013-01-12 12:28:00,39.5,37.1,30.22,ESE,114,1.0,2.0,91,0.00,,,0.05,Wunderground v.1.15,2013-01-12 17:28:00,
2013-01-12 12:30:00,39.5,37.1,30.22,ESE,114,0.0,2.0,91,0.00,,,0.05,Wunderground v.1.15,2013-01-12 17:30:00,
2013-01-12 12:31:00,39.4,37.0,30.22,ESE,114,0.0,2.0,91,0.00,,,0.05,Wunderground v.1.15,2013-01-12 17:31:00,
2013-01-12 12:32:00,39.5,37.1,30.22,ESE,114,0.0,2.0,91,0.00,,,0.05,Wunderground v.1.15,2013-01-12 17:32:00,
2013-01-12 12:33:00,39.5,37.1,30.22,ESE,114,0.0,2.0,91,0.00,,,0.05,Wunderground v.1.15,2013-01-12 17:33:00,
2013-01-12 12:36:00,39.6,37.2,30.21,ESE,114,2.0,2.0,91,0.00,,,0.05,Wunderground v.1.15,2013-01-12 17:36:00,
2013-01-12 12:38:00,39.6,37.5,30.21,SE,137,0.0,2.0,92,0.00,,,0.05,Wunderground v.1.15,2013-01-12 17:38:00,
2013-01-12 12:41:00,39.7,37.6,30.21,SE,137,0.0,2.0,92,0.00,,,0.05,Wunderground v.1.15,2013-01-12 17:41:00,
2013-01-12 12:43:00,39.7,37.6,30.22,SE,137,0.0,2.0,92,0.00,,,0.05,Wunderground v.1.15,2013-01-12 17:43:00,
2013-01-12 12:46:00,39.8,37.7,30.22,SE,128,0.0,2.0,92,0.00,,,0.05,Wunderground v.1.15,2013-01-12 17:46:00,
2013-01-12 12:48:00,39.8,37.4,30.22,SE,128,1.0,1.0,91,0.00,,,0.05,Wunderground v.1.15,2013-01-12 17:48:00,
2013-01-12 12:51:00,39.8,37.4,30.23,SE,128,0.0,1.0,91,0.00,,,0.05,Wunderground v.1.15,2013-01-12 17:51:00,
2013-01-12 12:53:00,39.8,37.4,30.23,SE,128,1.0,1.0,91,0.00,,,0.05,Wunderground v.1.15,2013-01-12 17:53:00,
2013-01-12 12:54:00,39.8,37.4,30.23,SE,128,0.0,1.0,91,0.00,,,0.05,Wunderground v.1.15,2013-01-12 17:54:00,
2013-01-12 12:56:00,39.9,37.5,30.23,SE,128,0.0,0.0,91,0.00,,,0.05,Wunderground v.1.15,2013-01-12 17:56:00,
2013-01-12 12:58:00,39.9,37.5,30.23,SE,128,0.0,0.0,91,0.00,,,0.05,Wunderground v.1.15,2013-01-12 17:58:00,
2013-01-12 12:59:00,39.9,37.5,30.23,SE,128,0.0,0.0,91,0.00,,,0.05,Wunderground v.1.15,2013-01-12 17:59:00,
2013-01-12 13:01:00,39.9,37.5,30.23,SE,128,0.0,1.0,91,0.00,,,0.05,Wunderground v.1.15,2013-01-12 18:01:00,
2013-01-12 13:02:00,39.9,37.5,30.23,SE,128,0.0,1.0,91,0.00,,,0.05,Wunderground v.1.15,2013-01-12 18:02:00,
2013-01-12 13:03:00,39.9,37.5,30.23,SE,128,2.0,2.0,91,0.00,,,0.05,Wunderground v.1.15,2013-01-12 18:03:00,
2013-01-12 13:04:00,39.9,37.5,30.23,SE,128,2.0,2.0,91,0.00,,,0.05,Wunderground v.1.15,2013-01-12 18:04:00,
2013-01-12 13:07:00,39.7,37.6,30.23,SE,128,0.0,0.0,92,0.00,,,0.05,Wunderground v.1.15,2013-01-12 18:07:00,
2013-01-12 13:09:00,39.7,37.3,30.23,SE,128,0.0,1.0,91,0.00,,,0.05,Wunderground v.1.15,2013-01-12 18:09:00,
2013-01-12 13:12:00,39.7,37.3,30.23,SE,128,0.0,1.0,91,0.00,,,0.05,Wunderground v.1.15,2013-01-12 18:12:00,
2013-01-12 13:14:00,39.7,37.3,30.24,SE,128,0.0,1.0,91,0.00,,,0.05,Wunderground v.1.15,2013-01-12 18:14:00,
2013-01-12 13:17:00,39.8,37.4,30.23,SE,128,0.0,1.0,91,0.00,,,0.05,Wunderground v.1.15,2013-01-12 18:17:00,
2013-01-12 13:19:00,41.5,39.1,30.24,SE,128,0.0,1.0,91,0.00,,,0.05,Wunderground v.1.15,2013-01-12 18:19:00,
2013-01-12 13:20:00,41.5,39.1,30.24,SE,128,0.0,1.0,91,0.00,,,0.05,Wunderground v.1.15,2013-01-12 18:20:00,
2013-01-12 13:23:00,43.1,40.7,30.24,SE,128,0.0,1.0,91,0.00,,,0.05,Wunderground v.1.15,2013-01-12 18:23:00,
2013-01-12 13:25:00,42.9,40.5,30.24,SE,128,1.0,2.0,91,0.00,,,0.05,Wunderground v.1.15,2013-01-12 18:25:00,
2013-01-12 13:28:00,42.7,40.3,30.24,SE,128,1.0,2.0,91,0.00,,,0.05,Wunderground v.1.15,2013-01-12 18:28:00,
2013-01-12 13:30:00,42.0,39.6,30.24,SE,128,0.0,2.0,91,0.00,,,0.05,Wunderground v.1.15,2013-01-12 18:30:00,
2013-01-12 13:33:00,41.5,39.1,30.24,SE,128,1.0,3.0,91,0.00,,,0.05,Wunderground v.1.15,2013-01-12 18:33:00,
2013-01-12 13:35:00,41.6,39.2,30.24,SE,128,0.0,3.0,91,0.00,,,0.05,Wunderground v.1.15,2013-01-12 18:35:00,
2013-01-12 13:38:00,43.3,40.8,30.23,SE,128,0.0,1.0,91,0.00,,,0.05,Wunderground v.1.15,2013-01-12 18:38:00,
2013-01-12 13:40:00,44.4,41.9,30.24,SE,128,3.0,3.0,91,0.00,,,0.05,Wunderground v.1.15,2013-01-12 18:40:00,
2013-01-12 13:43:00,42.7,40.3,30.24,SE,128,1.0,3.0,91,0.00,,,0.05,Wunderground v.1.15,2013-01-12 18:43:00,
2013-01-12 13:45:00,41.6,39.2,30.25,SE,128,1.0,3.0,91,0.00,,,0.05,Wunderground v.1.15,2013-01-12 18:45:00,
2013-01-12 13:46:00,41.3,38.9,30.25,SE,128,2.0,3.0,91,0.00,,,0.05,Wunderground v.1.15,2013-01-12 18:46:00,
2013-01-12 13:48:00,40.6,38.2,30.25,SE,128,1.0,2.0,91,0.00,,,0.05,Wunderground v.1.15,2013-01-12 18:48:00,
2013-01-12 13:50:00,40.4,38.0,30.25,SE,128,0.0,2.0,91,0.00,,,0.05,Wunderground v.1.15,2013-01-12 18:50:00,
2013-01-12 13:51:00,40.4,38.0,30.25,SE,128,1.0,2.0,91,0.00,,,0.05,Wunderground v.1.15,2013-01-12 18:51:00,
2013-01-12 13:53:00,40.4,38.0,30.24,SE,128,0.0,2.0,91,0.00,,,0.05,Wunderground v.1.15,2013-01-12 18:53:00,
2013-01-12 13:54:00,40.4,38.0,30.24,SE,128,0.0,2.0,91,0.00,,,0.05,Wunderground v.1.15,2013-01-12 18:54:00,
2013-01-12 13:55:00,40.4,38.0,30.23,SE,128,2.0,2.0,91,0.00,,,0.05,Wunderground v.1.15,2013-01-12 18:55:00,
2013-01-12 13:57:00,40.4,38.0,30.23,SE,128,1.0,1.0,91,0.00,,,0.05,Wunderground v.1.15,2013-01-12 18:57:00,
2013-01-12 13:58:00,40.4,38.0,30.23,SE,128,0.0,1.0,91,0.00,,,0.05,Wunderground v.1.15,2013-01-12 18:58:00,
2013-01-12 14:00:00,40.4,38.0,30.23,SE,128,0.0,1.0,91,0.00,,,0.05,Wunderground v.1.15,2013-01-12 19:00:00,
2013-01-12 14:02:00,40.4,38.0,30.23,SE,128,0.0,1.0,91,0.00,,,0.05,Wunderground v.1.15,2013-01-12 19:02:00,
2013-01-12 14:03:00,40.5,38.1,30.23,SE,128,0.0,1.0,91,0.00,,,0.05,Wunderground v.1.15,2013-01-12 19:03:00,
2013-01-12 14:05:00,40.6,38.2,30.22,SE,128,0.0,1.0,91,0.00,,,0.05,Wunderground v.1.15,2013-01-12 19:05:00,
2013-01-12 14:06:00,40.6,38.2,30.23,SE,128,0.0,0.0,91,0.00,,,0.05,Wunderground v.1.15,2013-01-12 19:06:00,
2013-01-12 14:07:00,40.7,38.3,30.23,SE,128,0.0,0.0,91,0.00,,,0.05,Wunderground v.1.15,2013-01-12 19:07:00,
2013-01-12 14:08:00,40.7,38.3,30.23,SE,128,0.0,0.0,91,0.00,,,0.05,Wunderground v.1.15,2013-01-12 19:08:00,
2013-01-12 14:10:00,40.7,38.3,30.23,SE,128,0.0,1.0,91,0.00,,,0.05,Wunderground v.1.15,2013-01-12 19:10:00,
2013-01-12 14:11:00,40.7,38.3,30.23,SE,128,0.0,1.0,91,0.00,,,0.05,Wunderground v.1.15,2013-01-12 19:11:00,
2013-01-12 14:12:00,40.7,38.3,30.23,SE,128,0.0,1.0,91,0.00,,,0.05,Wunderground v.1.15,2013-01-12 19:12:00,
2013-01-12 14:13:00,40.7,38.3,30.24,SE,128,1.0,1.0,91,0.00,,,0.05,Wunderground v.1.15,2013-01-12 19:13:00,
2013-01-12 14:15:00,40.6,38.2,30.24,SE,128,0.0,1.0,91,0.00,,,0.05,Wunderground v.1.15,2013-01-12 19:15:00,
2013-01-12 14:16:00,40.6,38.2,30.24,SE,128,0.0,0.0,91,0.00,,,0.05,Wunderground v.1.15,2013-01-12 19:16:00,
2013-01-12 14:18:00,40.7,38.3,30.24,SE,128,0.0,0.0,91,0.00,,,0.05,Wunderground v.1.15,2013-01-12 19:18:00,
2013-01-12 14:19:00,40.7,38.3,30.24,SE,128,0.0,0.0,91,0.00,,,0.05,Wunderground v.1.15,2013-01-12 19:19:00,
2013-01-12 14:21:00,40.7,38.3,30.24,SE,128,0.0,1.0,91,0.00,,,0.05,Wunderground v.1.15,2013-01-12 19:21:00,
2013-01-12 14:22:00,40.7,38.3,30.24,SE,128,0.0,1.0,91,0.00,,,0.05,Wunderground v.1.15,2013-01-12 19:22:00,
2013-01-12 14:23:00,40.7,38.3,30.24,SE,128,0.0,1.0,91,0.00,,,0.05,Wunderground v.1.15,2013-01-12 19:23:00,
2013-01-12 14:25:00,40.7,38.3,30.24,SE,128,1.0,1.0,91,0.00,,,0.05,Wunderground v.1.15,2013-01-12 19:25:00,
2013-01-12 14:26:00,40.7,38.3,30.24,SE,128,1.0,1.0,91,0.00,,,0.05,Wunderground v.1.15,2013-01-12 19:26:00,
2013-01-12 14:27:00,40.5,38.1,30.24,SE,128,0.0,1.0,91,0.00,,,0.05,Wunderground v.1.15,2013-01-12 19:27:00,
2013-01-12 14:28:00,40.5,38.1,30.24,SE,128,1.0,1.0,91,0.00,,,0.05,Wunderground v.1.15,2013-01-12 19:28:00,
2013-01-12 14:30:00,40.5,38.1,30.25,SE,128,0.0,1.0,91,0.00,,,0.05,Wunderground v.1.15,2013-01-12 19:30:00,
2013-01-12 14:31:00,40.5,38.1,30.24,SE,128,0.0,1.0,91,0.00,,,0.05,Wunderground v.1.15,2013-01-12 19:31:00,
2013-01-12 14:32:00,40.5,38.1,30.24,SE,128,0.0,1.0,91,0.00,,,0.05,Wunderground v.1.15,2013-01-12 19:32:00,
2013-01-12 14:33:00,40.6,38.2,30.24,SE,128,0.0,1.0,91,0.00,,,0.05,Wunderground v.1.15,2013-01-12 19:33:00,
2013-01-12 14:35:00,40.6,38.2,30.24,SE,128,0.0,1.0,91,0.00,,,0.05,Wunderground v.1.15,2013-01-12 19:35:00,
2013-01-12 14:36:00,40.7,38.3,30.24,SE,128,1.0,1.0,91,0.00,,,0.05,Wunderground v.1.15,2013-01-12 19:36:00,
2013-01-12 14:38:00,40.7,38.3,30.24,SE,128,1.0,2.0,91,0.00,,,0.05,Wunderground v.1.15,2013-01-12 19:38:00,
2013-01-12 14:39:00,40.6,38.2,30.25,SE,128,1.0,2.0,91,0.00,,,0.05,Wunderground v.1.15,2013-01-12 19:39:00,
2013-01-12 14:40:00,40.6,38.2,30.25,SE,128,0.0,2.0,91,0.00,,,0.05,Wunderground v.1.15,2013-01-12 19:40:00,
2013-01-12 14:41:00,40.7,38.3,30.25,SE,128,0.0,2.0,91,0.00,,,0.05,Wunderground v.1.15,2013-01-12 19:41:00,
2013-01-12 14:43:00,40.8,38.4,30.24,SE,128,0.0,2.0,91,0.00,,,0.05,Wunderground v.1.15,2013-01-12 19:43:00,
2013-01-12 14:44:00,40.9,38.5,30.25,SE,128,1.0,2.0,91,0.00,,,0.05,Wunderground v.1.15,2013-01-12 19:44:00,
2013-01-12 14:45:00,40.9,38.5,30.25,SE,128,1.0,2.0,91,0.00,,,0.05,Wunderground v.1.15,2013-01-12 19:45:00,
2013-01-12 14:46:00,40.9,38.5,30.25,SE,128,0.0,2.0,91,0.00,,,0.05,Wunderground v.1.15,2013-01-12 19:46:00,
2013-01-12 14:49:00,41.0,38.6,30.25,SE,128,0.0,1.0,91,0.00,,,0.05,Wunderground v.1.15,2013-01-12 19:49:00,
2013-01-12 14:50:00,40.9,38.5,30.25,SE,128,0.0,1.0,91,0.00,,,0.05,Wunderground v.1.15,2013-01-12 19:50:00,
2013-01-12 14:51:00,40.9,38.5,30.25,SE,128,0.0,1.0,91,0.00,,,0.05,Wunderground v.1.15,2013-01-12 19:51:00,
2013-01-12 14:54:00,40.9,38.5,30.25,SE,128,0.0,1.0,91,0.00,,,0.05,Wunderground v.1.15,2013-01-12 19:54:00,
2013-01-12 14:55:00,40.9,38.5,30.25,SE,128,0.0,1.0,91,0.00,,,0.05,Wunderground v.1.15,2013-01-12 19:55:00,
2013-01-12 14:56:00,40.9,38.5,30.25,SE,128,0.0,0.0,91,0.00,,,0.05,Wunderground v.1.15,2013-01-12 19:56:00,
2013-01-12 15:00:00,41.0,38.6,30.25,SE,128,0.0,1.0,91,0.00,,,0.05,Wunderground v.1.15,2013-01-12 20:00:00,
2013-01-12 15:01:00,41.0,38.6,30.24,SE,128,0.0,1.0,91,0.00,,,0.05,Wunderground v.1.15,2013-01-12 20:01:00,
2013-01-12 15:05:00,41.0,38.6,30.24,SE,128,1.0,2.0,91,0.00,,,0.05,Wunderground v.1.15,2013-01-12 20:05:00,
2013-01-12 15:06:00,40.9,38.5,30.24,SE,128,1.0,1.0,91,0.00,,,0.05,Wunderground v.1.15,2013-01-12 20:06:00,
2013-01-12 15:10:00,41.0,38.6,30.24,SE,128,0.0,1.0,91,0.00,,,0.05,Wunderground v.1.15,2013-01-12 20:10:00,
2013-01-12 15:12:00,41.0,38.6,30.24,SE,128,0.0,1.0,91,0.00,,,0.05,Wunderground v.1.15,2013-01-12 20:12:00,
2013-01-12 15:15:00,41.0,38.6,30.24,SE,128,0.0,1.0,91,0.00,,,0.05,Wunderground v.1.15,2013-01-12 20:15:00,
2013-01-12 15:17:00,41.1,38.7,30.24,SE,128,0.0,1.0,91,0.00,,,0.05,Wunderground v.1.15,2013-01-12 20:17:00,
2013-01-12 15:20:00,41.0,38.6,30.25,SE,128,0.0,1.0,91,0.00,,,0.05,Wunderground v.1.15,2013-01-12 20:20:00,
2013-01-12 15:22:00,41.0,38.6,30.25,SE,128,0.0,1.0,91,0.00,,,0.05,Wunderground v.1.15,2013-01-12 20:22:00,
2013-01-12 15:23:00,41.0,38.6,30.25,SE,128,0.0,1.0,91,0.00,,,0.05,Wunderground v.1.15,2013-01-12 20:23:00,
2013-01-12 15:25:00,41.0,38.6,30.25,SE,128,0.0,1.0,91,0.00,,,0.05,Wunderground v.1.15,2013-01-12 20:25:00,
2013-01-12 15:27:00,40.9,38.5,30.25,SE,128,0.0,1.0,91,0.00,,,0.05,Wunderground v.1.15,2013-01-12 20:27:00,
2013-01-12 15:28:00,40.9,38.5,30.25,SE,128,1.0,1.0,91,0.00,,,0.05,Wunderground v.1.15,2013-01-12 20:28:00,
2013-01-12 15:31:00,40.9,38.5,30.25,SE,128,0.0,1.0,91,0.00,,,0.05,Wunderground v.1.15,2013-01-12 20:31:00,
2013-01-12 15:32:00,40.8,38.4,30.25,SE,128,0.0,1.0,91,0.00,,,0.05,Wunderground v.1.15,2013-01-12 20:32:00,
2013-01-12 15:33:00,40.8,38.4,30.25,SE,128,0.0,1.0,91,0.00,,,0.05,Wunderground v.1.15,2013-01-12 20:33:00,
2013-01-12 15:36:00,40.8,38.4,30.25,SE,128,0.0,1.0,91,0.00,,,0.05,Wunderground v.1.15,2013-01-12 20:36:00,
2013-01-12 15:37:00,40.9,38.5,30.25,SE,128,0.0,0.0,91,0.00,,,0.05,Wunderground v.1.15,2013-01-12 20:37:00,
2013-01-12 15:39:00,40.9,38.5,30.25,SE,128,0.0,0.0,91,0.00,,,0.05,Wunderground v.1.15,2013-01-12 20:39:00,
2013-01-12 15:41:00,40.9,38.5,30.24,SE,128,0.0,0.0,91,0.00,,,0.05,Wunderground v.1.15,2013-01-12 20:41:00,
2013-01-12 15:42:00,40.9,38.5,30.24,SE,128,0.0,0.0,91,0.00,,,0.05,Wunderground v.1.15,2013-01-12 20:42:00,
2013-01-12 15:44:00,40.9,38.5,30.24,SE,128,0.0,0.0,91,0.00,,,0.05,Wunderground v.1.15,2013-01-12 20:44:00,
2013-01-12 15:46:00,40.9,38.5,30.24,SE,128,0.0,0.0,91,0.00,,,0.05,Wunderground v.1.15,2013-01-12 20:46:00,
2013-01-12 15:47:00,40.9,38.5,30.24,SE,128,0.0,0.0,91,0.00,,,0.05,Wunderground v.1.15,2013-01-12 20:47:00,
2013-01-12 15:49:00,40.9,38.5,30.24,SE,128,0.0,0.0,91,0.00,,,0.05,Wunderground v.1.15,2013-01-12 20:49:00,
2013-01-12 15:52:00,40.9,38.5,30.24,SE,128,0.0,1.0,91,0.00,,,0.05,Wunderground v.1.15,2013-01-12 20:52:00,
2013-01-12 15:54:00,40.9,38.5,30.24,SE,128,0.0,1.0,91,0.00,,,0.05,Wunderground v.1.15,2013-01-12 20:54:00,
2013-01-12 15:57:00,40.9,38.5,30.24,SE,128,0.0,1.0,91,0.00,,,0.05,Wunderground v.1.15,2013-01-12 20:57:00,
2013-01-12 15:58:00,40.9,38.5,30.24,SE,128,0.0,1.0,91,0.00,,,0.05,Wunderground v.1.15,2013-01-12 20:58:00,
2013-01-12 15:59:00,40.9,38.5,30.24,SE,128,0.0,1.0,91,0.00,,,0.05,Wunderground v.1.15,2013-01-12 20:59:00,
2013-01-12 16:00:00,40.9,38.5,30.24,SE,128,1.0,1.0,91,0.00,,,0.05,Wunderground v.1.15,2013-01-12 21:00:00,
2013-01-12 16:03:00,40.8,38.4,30.24,SE,128,0.0,2.0,91,0.00,,,0.05,Wunderground v.1.15,2013-01-12 21:03:00,
2013-01-12 16:05:00,40.8,38.4,30.25,SE,128,0.0,2.0,91,0.00,,,0.05,Wunderground v.1.15,2013-01-12 21:05:00,
2013-01-12 16:08:00,40.8,38.4,30.25,SE,128,0.0,0.0,91,0.00,,,0.05,Wunderground v.1.15,2013-01-12 21:08:00,
2013-01-12 16:10:00,40.8,38.4,30.25,SE,128,0.0,1.0,91,0.00,,,0.05,Wunderground v.1.15,2013-01-12 21:10:00,
2013-01-12 16:13:00,40.8,38.4,30.25,SE,128,0.0,2.0,91,0.00,,,0.05,Wunderground v.1.15,2013-01-12 21:13:00,
2013-01-12 16:15:00,40.7,38.3,30.25,SE,128,0.0,2.0,91,0.00,,,0.05,Wunderground v.1.15,2013-01-12 21:15:00,
2013-01-12 16:18:00,40.7,38.3,30.25,SE,128,0.0,2.0,91,0.00,,,0.05,Wunderground v.1.15,2013-01-12 21:18:00,
2013-01-12 16:20:00,40.7,38.3,30.25,SE,128,0.0,2.0,91,0.00,,,0.05,Wunderground v.1.15,2013-01-12 21:20:00,
2013-01-12 16:24:00,40.7,38.3,30.25,SE,128,0.0,2.0,91,0.00,,,0.05,Wunderground v.1.15,2013-01-12 21:24:00,
2013-01-12 16:25:00,40.7,38.3,30.25,SE,128,0.0,2.0,91,0.00,,,0.05,Wunderground v.1.15,2013-01-12 21:25:00,
2013-01-12 16:26:00,40.7,38.3,30.25,SE,128,0.0,0.0,91,0.00,,,0.05,Wunderground v.1.15,2013-01-12 21:26:00,
2013-01-12 16:29:00,40.7,38.3,30.25,SE,128,0.0,0.0,91,0.00,,,0.05,Wunderground v.1.15,2013-01-12 21:29:00,
2013-01-12 16:30:00,40.7,38.3,30.24,SE,128,0.0,0.0,91,0.00,,,0.05,Wunderground v.1.15,2013-01-12 21:30:00,
2013-01-12 16:31:00,40.7,38.3,30.24,SE,128,0.0,0.0,91,0.00,,,0.05,Wunderground v.1.15,2013-01-12 21:31:00,
2013-01-12 16:34:00,40.7,38.3,30.24,SE,128,0.0,0.0,91,0.00,,,0.05,Wunderground v.1.15,2013-01-12 21:34:00,
2013-01-12 16:35:00,40.7,38.3,30.24,SE,128,0.0,0.0,91,0.00,,,0.05,Wunderground v.1.15,2013-01-12 21:35:00,
2013-01-12 16:36:00,40.7,38.3,30.24,SE,128,0.0,0.0,91,0.00,,,0.06,Wunderground v.1.15,2013-01-12 21:36:00,
2013-01-12 16:39:00,40.7,38.3,30.24,SE,128,0.0,0.0,91,0.00,,,0.06,Wunderground v.1.15,2013-01-12 21:39:00,
2013-01-12 16:41:00,40.6,38.2,30.24,SE,128,0.0,0.0,91,0.00,,,0.06,Wunderground v.1.15,2013-01-12 21:41:00,
2013-01-12 16:44:00,40.6,38.2,30.24,SE,128,0.0,0.0,91,0.00,,,0.06,Wunderground v.1.15,2013-01-12 21:44:00,
2013-01-12 16:46:00,40.5,38.1,30.23,SE,128,0.0,0.0,91,0.00,,,0.06,Wunderground v.1.15,2013-01-12 21:46:00,
2013-01-12 16:47:00,40.5,38.1,30.23,SE,128,0.0,0.0,91,0.00,,,0.06,Wunderground v.1.15,2013-01-12 21:47:00,
2013-01-12 16:49:00,40.5,38.1,30.23,SE,128,0.0,1.0,91,0.00,,,0.06,Wunderground v.1.15,2013-01-12 21:49:00,
2013-01-12 16:50:00,40.5,38.1,30.23,SE,128,0.0,1.0,91,0.00,,,0.06,Wunderground v.1.15,2013-01-12 21:50:00,
2013-01-12 16:51:00,40.5,38.1,30.23,SE,128,0.0,1.0,91,0.00,,,0.06,Wunderground v.1.15,2013-01-12 21:51:00,
2013-01-12 16:52:00,40.5,38.1,30.23,SE,128,0.0,1.0,91,0.00,,,0.06,Wunderground v.1.15,2013-01-12 21:52:00,
2013-01-12 16:55:00,40.4,38.0,30.24,SE,128,0.0,1.0,91,0.00,,,0.06,Wunderground v.1.15,2013-01-12 21:55:00,
2013-01-12 16:56:00,40.4,38.0,30.24,SE,128,1.0,1.0,91,0.00,,,0.06,Wunderground v.1.15,2013-01-12 21:56:00,
2013-01-12 16:57:00,40.3,37.9,30.24,SE,128,1.0,1.0,91,0.00,,,0.06,Wunderground v.1.15,2013-01-12 21:57:00,
2013-01-12 17:00:00,40.3,37.9,30.25,SE,128,0.0,1.0,91,0.00,,,0.06,Wunderground v.1.15,2013-01-12 22:00:00,
2013-01-12 17:01:00,40.4,38.0,30.25,SE,128,0.0,1.0,91,0.00,,,0.06,Wunderground v.1.15,2013-01-12 22:01:00,
2013-01-12 17:02:00,41.5,39.1,30.25,SE,128,0.0,1.0,91,0.00,,,0.06,Wunderground v.1.15,2013-01-12 22:02:00,
2013-01-12 17:06:00,44.0,41.5,30.25,SE,128,1.0,1.0,91,0.00,,,0.06,Wunderground v.1.15,2013-01-12 22:06:00,
2013-01-12 17:07:00,43.5,41.0,30.25,SE,128,1.0,1.0,91,0.00,,,0.06,Wunderground v.1.15,2013-01-12 22:07:00,
2013-01-12 17:11:00,41.9,39.5,30.25,SE,128,1.0,2.0,91,0.00,,,0.06,Wunderground v.1.15,2013-01-12 22:11:00,
2013-01-12 17:13:00,41.4,39.0,30.25,SE,128,0.0,2.0,91,0.00,,,0.06,Wunderground v.1.15,2013-01-12 22:13:00,
2013-01-12 17:16:00,40.9,38.5,30.25,SE,128,0.0,0.0,91,0.00,,,0.06,Wunderground v.1.15,2013-01-12 22:16:00,
2013-01-12 17:18:00,40.8,38.4,30.25,SE,128,0.0,0.0,91,0.00,,,0.06,Wunderground v.1.15,2013-01-12 22:18:00,
2013-01-12 17:22:00,40.4,38.0,30.25,SE,128,0.0,2.0,91,0.00,,,0.06,Wunderground v.1.15,2013-01-12 22:22:00,
2013-01-12 17:23:00,40.4,38.0,30.25,SE,128,0.0,2.0,91,0.00,,,0.06,Wunderground v.1.15,2013-01-12 22:23:00,
2013-01-12 17:27:00,40.1,37.7,30.25,SE,128,0.0,1.0,91,0.00,,,0.06,Wunderground v.1.15,2013-01-12 22:27:00,
2013-01-12 17:28:00,40.1,37.7,30.25,SE,128,1.0,2.0,91,0.00,,,0.06,Wunderground v.1.15,2013-01-12 22:28:00,
2013-01-12 17:32:00,40.0,37.6,30.25,SE,128,0.0,2.0,91,0.00,,,0.06,Wunderground v.1.15,2013-01-12 22:32:00,
2013-01-12 17:33:00,40.0,37.6,30.25,SE,128,0.0,2.0,91,0.00,,,0.06,Wunderground v.1.15,2013-01-12 22:33:00,
2013-01-12 17:37:00,40.1,37.7,30.25,SE,128,0.0,1.0,91,0.00,,,0.06,Wunderground v.1.15,2013-01-12 22:37:00,
2013-01-12 17:38:00,40.1,37.7,30.25,SE,128,0.0,1.0,91,0.00,,,0.06,Wunderground v.1.15,2013-01-12 22:38:00,
2013-01-12 17:39:00,40.1,37.7,30.25,SE,128,0.0,1.0,91,0.00,,,0.06,Wunderground v.1.15,2013-01-12 22:39:00,
2013-01-12 17:43:00,40.1,37.7,30.25,SE,128,0.0,1.0,91,0.00,,,0.06,Wunderground v.1.15,2013-01-12 22:43:00,
2013-01-12 17:44:00,40.1,37.7,30.25,SE,128,0.0,1.0,91,0.00,,,0.06,Wunderground v.1.15,2013-01-12 22:44:00,
2013-01-12 17:48:00,40.0,37.6,30.25,SE,128,0.0,1.0,91,0.00,,,0.06,Wunderground v.1.15,2013-01-12 22:48:00,
2013-01-12 17:49:00,40.0,37.6,30.25,SE,128,0.0,1.0,91,0.00,,,0.06,Wunderground v.1.15,2013-01-12 22:49:00,
2013-01-12 17:54:00,40.1,37.7,30.25,SE,128,0.0,1.0,91,0.00,,,0.06,Wunderground v.1.15,2013-01-12 22:54:00,
2013-01-12 17:59:00,40.0,37.6,30.25,SE,128,0.0,0.0,91,0.00,,,0.06,Wunderground v.1.15,2013-01-12 22:59:00,
2013-01-12 18:00:00,39.9,37.5,30.25,SE,128,0.0,1.0,91,0.00,,,0.06,Wunderground v.1.15,2013-01-12 23:00:00,
2013-01-12 18:04:00,39.7,37.6,30.26,SE,128,0.0,1.0,92,0.00,,,0.06,Wunderground v.1.15,2013-01-12 23:04:00,
2013-01-12 18:05:00,39.6,37.5,30.26,SE,128,0.0,1.0,92,0.00,,,0.06,Wunderground v.1.15,2013-01-12 23:05:00,
2013-01-12 18:09:00,39.5,37.1,30.26,SE,128,0.0,0.0,91,0.00,,,0.06,Wunderground v.1.15,2013-01-12 23:09:00,
2013-01-12 18:10:00,39.5,37.1,30.26,SE,128,0.0,0.0,91,0.00,,,0.06,Wunderground v.1.15,2013-01-12 23:10:00,
2013-01-12 18:14:00,39.4,37.0,30.25,SE,128,0.0,0.0,91,0.00,,,0.06,Wunderground v.1.15,2013-01-12 23:14:00,
2013-01-12 18:15:00,39.4,37.0,30.25,SE,128,0.0,0.0,91,0.00,,,0.06,Wunderground v.1.15,2013-01-12 23:15:00,
2013-01-12 18:20:00,39.5,37.1,30.25,SE,128,0.0,0.0,91,0.00,,,0.06,Wunderground v.1.15,2013-01-12 23:20:00,
2013-01-12 18:25:00,39.6,37.5,30.25,SE,128,0.0,0.0,92,0.00,,,0.06,Wunderground v.1.15,2013-01-12 23:25:00,
2013-01-12 18:26:00,39.7,37.6,30.24,SE,128,0.0,0.0,92,0.00,,,0.06,Wunderground v.1.15,2013-01-12 23:26:00,
2013-01-12 18:30:00,39.7,37.6,30.24,SE,128,0.0,1.0,92,0.00,,,0.06,Wunderground v.1.15,2013-01-12 23:30:00,
2013-01-12 18:31:00,39.7,37.6,30.24,SE,128,0.0,1.0,92,0.00,,,0.06,Wunderground v.1.15,2013-01-12 23:31:00,
2013-01-12 18:32:00,39.7,37.6,30.24,SE,128,0.0,1.0,92,0.00,,,0.06,Wunderground v.1.15,2013-01-12 23:32:00,
2013-01-12 18:35:00,39.6,37.5,30.24,SE,128,0.0,1.0,92,0.00,,,0.06,Wunderground v.1.15,2013-01-12 23:35:00,
2013-01-12 18:36:00,39.6,37.5,30.24,SE,128,0.0,0.0,92,0.00,,,0.06,Wunderground v.1.15,2013-01-12 23:36:00,
2013-01-12 18:37:00,39.6,37.5,30.24,SE,128,0.0,0.0,92,0.00,,,0.06,Wunderground v.1.15,2013-01-12 23:37:00,
2013-01-12 18:40:00,39.6,37.5,30.24,SE,128,0.0,0.0,92,0.00,,,0.06,Wunderground v.1.15,2013-01-12 23:40:00,
2013-01-12 18:42:00,39.6,37.5,30.24,SE,128,0.0,0.0,92,0.00,,,0.06,Wunderground v.1.15,2013-01-12 23:42:00,
2013-01-12 18:45:00,39.6,37.5,30.24,SE,128,0.0,0.0,92,0.00,,,0.06,Wunderground v.1.15,2013-01-12 23:45:00,
2013-01-12 18:47:00,39.5,37.1,30.23,SE,128,0.0,0.0,91,0.00,,,0.06,Wunderground v.1.15,2013-01-12 23:47:00,
2013-01-12 18:48:00,39.5,37.1,30.23,SE,128,0.0,0.0,91,0.00,,,0.06,Wunderground v.1.15,2013-01-12 23:48:00,
2013-01-12 18:51:00,39.5,37.4,30.24,SE,128,0.0,0.0,92,0.00,,,0.06,Wunderground v.1.15,2013-01-12 23:51:00,
2013-01-12 18:52:00,39.5,37.1,30.23,SE,128,0.0,0.0,91,0.00,,,0.06,Wunderground v.1.15,2013-01-12 23:52:00,
2013-01-12 18:53:00,39.5,37.1,30.23,SE,128,0.0,0.0,91,0.00,,,0.06,Wunderground v.1.15,2013-01-12 23:53:00,
2013-01-12 18:56:00,39.5,37.1,30.23,SE,128,0.0,0.0,91,0.00,,,0.06,Wunderground v.1.15,2013-01-12 23:56:00,
2013-01-12 18:57:00,39.4,37.0,30.23,SE,128,0.0,0.0,91,0.00,,,0.06,Wunderground v.1.15,2013-01-12 23:57:00,
2013-01-12 18:58:00,39.5,37.1,30.23,SE,128,0.0,0.0,91,0.00,,,0.06,Wunderground v.1.15,2013-01-12 23:58:00,
2013-01-12 18:59:00,39.5,37.1,30.23,SE,128,0.0,0.0,91,0.00,,,0.06,Wunderground v.1.15,2013-01-12 23:59:00,
2013-01-12 19:01:00,39.5,37.4,30.23,SE,128,0.0,0.0,92,0.00,,,0.06,Wunderground v.1.15,2013-01-13 00:01:00,
2013-01-12 19:02:00,39.5,37.4,30.23,SE,128,0.0,0.0,92,0.00,,,0.06,Wunderground v.1.15,2013-01-13 00:02:00,
2013-01-12 19:03:00,39.5,37.4,30.23,SE,128,0.0,0.0,92,0.00,,,0.06,Wunderground v.1.15,2013-01-13 00:03:00,
2013-01-12 19:04:00,39.5,37.1,30.24,SE,128,0.0,0.0,91,0.00,,,0.06,Wunderground v.1.15,2013-01-13 00:04:00,
2013-01-12 19:06:00,39.5,37.1,30.24,SE,128,0.0,0.0,91,0.00,,,0.06,Wunderground v.1.15,2013-01-13 00:06:00,
2013-01-12 19:07:00,39.5,37.1,30.23,SE,128,0.0,0.0,91,0.00,,,0.06,Wunderground v.1.15,2013-01-13 00:07:00,
2013-01-12 19:08:00,39.5,37.1,30.23,SE,128,0.0,0.0,91,0.00,,,0.06,Wunderground v.1.15,2013-01-13 00:08:00,
2013-01-12 19:10:00,39.5,37.4,30.23,SE,128,0.0,1.0,92,0.00,,,0.06,Wunderground v.1.15,2013-01-13 00:10:00,
2013-01-12 19:11:00,39.5,37.4,30.23,SE,128,0.0,1.0,92,0.00,,,0.06,Wunderground v.1.15,2013-01-13 00:11:00,
2013-01-12 19:13:00,39.5,37.1,30.24,SE,128,0.0,1.0,91,0.00,,,0.06,Wunderground v.1.15,2013-01-13 00:13:00,
2013-01-12 19:15:00,39.5,37.4,30.23,SE,128,0.0,1.0,92,0.00,,,0.06,Wunderground v.1.15,2013-01-13 00:15:00,
2013-01-12 19:16:00,39.5,37.4,30.23,SE,128,0.0,0.0,92,0.00,,,0.06,Wunderground v.1.15,2013-01-13 00:16:00,
2013-01-12 19:18:00,39.5,37.4,30.23,SE,128,0.0,0.0,92,0.00,,,0.06,Wunderground v.1.15,2013-01-13 00:18:00,
2013-01-12 19:20:00,39.5,37.4,30.24,SE,128,0.0,0.0,92,0.00,,,0.06,Wunderground v.1.15,2013-01-13 00:20:00,
2013-01-12 19:21:00,39.5,37.4,30.24,SE,128,0.0,0.0,92,0.00,,,0.06,Wunderground v.1.15,2013-01-13 00:21:00,
2013-01-12 19:23:00,39.5,37.4,30.23,SE,128,0.0,0.0,92,0.00,,,0.06,Wunderground v.1.15,2013-01-13 00:23:00,
2013-01-12 19:24:00,39.5,37.4,30.23,SE,128,0.0,0.0,92,0.00,,,0.06,Wunderground v.1.15,2013-01-13 00:24:00,
2013-01-12 19:25:00,39.5,37.4,30.23,SE,128,0.0,0.0,92,0.00,,,0.06,Wunderground v.1.15,2013-01-13 00:25:00,
2013-01-12 19:26:00,39.5,37.4,30.23,SE,128,0.0,0.0,92,0.00,,,0.06,Wunderground v.1.15,2013-01-13 00:26:00,
2013-01-12 19:28:00,39.4,37.0,30.23,SE,128,0.0,1.0,91,0.00,,,0.06,Wunderground v.1.15,2013-01-13 00:28:00,
2013-01-12 19:29:00,39.3,36.9,30.23,SE,128,1.0,1.0,91,0.00,,,0.06,Wunderground v.1.15,2013-01-13 00:29:00,
2013-01-12 19:31:00,39.3,36.9,30.23,SE,128,0.0,1.0,91,0.00,,,0.06,Wunderground v.1.15,2013-01-13 00:31:00,
2013-01-12 19:34:00,39.3,36.9,30.22,SE,128,0.0,1.0,91,0.00,,,0.06,Wunderground v.1.15,2013-01-13 00:34:00,
2013-01-12 19:36:00,39.2,37.1,30.22,SE,128,0.0,0.0,92,0.00,,,0.06,Wunderground v.1.15,2013-01-13 00:36:00,
2013-01-12 19:39:00,39.2,37.1,30.23,SE,128,0.0,0.0,92,0.00,,,0.06,Wunderground v.1.15,2013-01-13 00:39:00,
2013-01-12 19:41:00,39.3,36.9,30.23,SE,128,0.0,0.0,91,0.00,,,0.06,Wunderground v.1.15,2013-01-13 00:41:00,
2013-01-12 19:42:00,39.3,36.9,30.23,SE,128,0.0,0.0,91,0.00,,,0.06,Wunderground v.1.15,2013-01-13 00:42:00,
2013-01-12 19:44:00,39.3,36.9,30.23,SE,128,0.0,0.0,91,0.00,,,0.06,Wunderground v.1.15,2013-01-13 00:44:00,
2013-01-12 19:46:00,39.4,37.0,30.23,SE,128,0.0,0.0,91,0.00,,,0.06,Wunderground v.1.15,2013-01-13 00:46:00,
2013-01-12 19:47:00,39.4,37.0,30.23,SE,128,0.0,0.0,91,0.00,,,0.06,Wunderground v.1.15,2013-01-13 00:47:00,
2013-01-12 19:49:00,40.0,37.6,30.23,SE,128,0.0,0.0,91,0.00,,,0.06,Wunderground v.1.15,2013-01-13 00:49:00,
2013-01-12 19:50:00,42.1,39.7,30.23,SE,128,0.0,0.0,91,0.00,,,0.06,Wunderground v.1.15,2013-01-13 00:50:00,
2013-01-12 19:51:00,47.3,45.1,30.23,SE,128,0.0,0.0,92,0.00,,,0.06,Wunderground v.1.15,2013-01-13 00:51:00,
2013-01-12 19:52:00,49.5,47.3,30.23,SE,128,0.0,0.0,92,0.00,,,0.06,Wunderground v.1.15,2013-01-13 00:52:00,
2013-01-12 19:54:00,53.0,51.0,30.24,SE,128,0.0,1.0,93,0.00,,,0.06,Wunderground v.1.15,2013-01-13 00:54:00,
2013-01-12 19:55:00,53.9,51.9,30.24,SE,128,0.0,1.0,93,0.00,,,0.06,Wunderground v.1.15,2013-01-13 00:55:00,
2013-01-12 19:57:00,55.5,53.2,30.24,SE,128,0.0,0.0,92,0.00,,,0.06,Wunderground v.1.15,2013-01-13 00:57:00,
2013-01-12 19:58:00,56.5,54.2,30.24,SE,128,0.0,0.0,92,0.00,,,0.06,Wunderground v.1.15,2013-01-13 00:58:00,
2013-01-12 19:59:00,55.2,52.6,30.24,SE,128,0.0,0.0,91,0.00,,,0.06,Wunderground v.1.15,2013-01-13 00:59:00,
2013-01-12 20:00:00,54.1,51.2,30.24,SE,128,0.0,0.0,90,0.00,,,0.06,Wunderground v.1.15,2013-01-13 01:00:00,
2013-01-12 20:02:00,52.5,49.7,30.23,SE,128,0.0,0.0,90,0.00,,,0.06,Wunderground v.1.15,2013-01-13 01:02:00,
2013-01-12 20:03:00,50.1,47.3,30.23,SE,128,0.0,0.0,90,0.00,,,0.06,Wunderground v.1.15,2013-01-13 01:03:00,
2013-01-12 20:05:00,48.1,45.3,30.23,SE,128,0.0,0.0,90,0.00,,,0.06,Wunderground v.1.15,2013-01-13 01:05:00,
2013-01-12 20:06:00,47.8,45.0,30.23,SE,128,0.0,0.0,90,0.00,,,0.06,Wunderground v.1.15,2013-01-13 01:06:00,
2013-01-12 20:07:00,46.8,44.0,30.23,SE,128,0.0,1.0,90,0.00,,,0.06,Wunderground v.1.15,2013-01-13 01:07:00,
2013-01-12 20:09:00,47.2,44.4,30.23,SE,128,0.0,1.0,90,0.00,,,0.06,Wunderground v.1.15,2013-01-13 01:09:00,
2013-01-12 20:11:00,46.2,43.4,30.22,SE,128,0.0,1.0,90,0.00,,,0.06,Wunderground v.1.15,2013-01-13 01:11:00,
2013-01-12 20:12:00,45.0,42.5,30.22,SE,128,0.0,1.0,91,0.00,,,0.06,Wunderground v.1.15,2013-01-13 01:12:00,
2013-01-12 20:15:00,43.5,41.0,30.22,SE,128,0.0,1.0,91,0.00,,,0.06,Wunderground v.1.15,2013-01-13 01:15:00,
2013-01-12 20:16:00,42.7,40.3,30.22,SE,128,0.0,0.0,91,0.00,,,0.06,Wunderground v.1.15,2013-01-13 01:16:00,
2013-01-12 20:17:00,42.5,40.1,30.22,SE,128,0.0,0.0,91,0.00,,,0.06,Wunderground v.1.15,2013-01-13 01:17:00,
2013-01-12 20:20:00,42.1,39.7,30.22,SE,128,0.0,0.0,91,0.00,,,0.06,Wunderground v.1.15,2013-01-13 01:20:00,
2013-01-12 20:22:00,41.5,39.1,30.23,SE,128,2.0,2.0,91,0.00,,,0.06,Wunderground v.1.15,2013-01-13 01:22:00,
2013-01-12 20:23:00,41.4,39.0,30.23,SE,128,1.0,2.0,91,0.00,,,0.06,Wunderground v.1.15,2013-01-13 01:23:00,
2013-01-12 20:25:00,41.0,38.6,30.23,SE,128,0.0,2.0,91,0.00,,,0.06,Wunderground v.1.15,2013-01-13 01:25:00,
2013-01-12 20:28:00,40.5,38.1,30.23,SE,128,1.0,1.0,91,0.00,,,0.06,Wunderground v.1.15,2013-01-13 01:28:00,
2013-01-12 20:30:00,40.3,37.9,30.23,SE,128,0.0,1.0,91,0.00,,,0.06,Wunderground v.1.15,2013-01-13 01:30:00,
2013-01-12 20:33:00,40.2,37.8,30.24,SE,128,1.0,1.0,91,0.00,,,0.06,Wunderground v.1.15,2013-01-13 01:33:00,
2013-01-12 20:35:00,40.1,37.7,30.24,SE,128,0.0,2.0,91,0.00,,,0.06,Wunderground v.1.15,2013-01-13 01:35:00,
2013-01-12 20:38:00,40.1,37.7,30.24,SE,128,0.0,1.0,91,0.00,,,0.06,Wunderground v.1.15,2013-01-13 01:38:00,
2013-01-12 20:39:00,40.1,37.7,30.24,SE,128,0.0,1.0,91,0.00,,,0.06,Wunderground v.1.15,2013-01-13 01:39:00,
2013-01-12 20:40:00,40.1,37.7,30.24,SE,128,1.0,2.0,91,0.00,,,0.06,Wunderground v.1.15,2013-01-13 01:40:00,
2013-01-12 20:43:00,40.2,37.8,30.24,SE,128,0.0,2.0,91,0.00,,,0.06,Wunderground v.1.15,2013-01-13 01:43:00,
2013-01-12 20:44:00,40.2,37.8,30.24,SE,128,0.0,2.0,91,0.00,,,0.06,Wunderground v.1.15,2013-01-13 01:44:00,
2013-01-12 20:46:00,40.2,37.8,30.23,SE,128,0.0,0.0,91,0.00,,,0.06,Wunderground v.1.15,2013-01-13 01:46:00,
2013-01-12 20:48:00,40.1,37.7,30.24,SE,128,1.0,1.0,91,0.00,,,0.06,Wunderground v.1.15,2013-01-13 01:48:00,
2013-01-12 20:49:00,40.0,37.6,30.24,SE,128,0.0,1.0,91,0.00,,,0.06,Wunderground v.1.15,2013-01-13 01:49:00,
2013-01-12 20:51:00,39.7,37.3,30.24,SE,128,0.0,1.0,91,0.00,,,0.06,Wunderground v.1.15,2013-01-13 01:51:00,
2013-01-12 20:54:00,39.4,37.0,30.24,SE,128,0.0,1.0,91,0.00,,,0.06,Wunderground v.1.15,2013-01-13 01:54:00,
2013-01-12 20:56:00,39.3,36.9,30.23,SE,128,0.0,0.0,91,0.00,,,0.06,Wunderground v.1.15,2013-01-13 01:56:00,
2013-01-12 20:59:00,39.3,36.9,30.23,SE,128,0.0,0.0,91,0.00,,,0.06,Wunderground v.1.15,2013-01-13 01:59:00,
2013-01-12 21:01:00,39.3,36.9,30.24,SE,128,0.0,0.0,91,0.00,,,0.06,Wunderground v.1.15,2013-01-13 02:01:00,
2013-01-12 21:02:00,39.6,37.2,30.23,SE,128,0.0,0.0,91,0.00,,,0.06,Wunderground v.1.15,2013-01-13 02:02:00,
2013-01-12 21:04:00,45.2,42.7,30.23,SE,128,0.0,1.0,91,0.00,,,0.06,Wunderground v.1.15,2013-01-13 02:04:00,
2013-01-12 21:05:00,45.7,43.2,30.23,SE,128,0.0,1.0,91,0.00,,,0.06,Wunderground v.1.15,2013-01-13 02:05:00,
2013-01-12 21:06:00,49.7,47.8,30.23,SE,128,0.0,0.0,93,0.00,,,0.06,Wunderground v.1.15,2013-01-13 02:06:00,
2013-01-12 21:07:00,51.1,49.1,30.23,SE,128,0.0,0.0,93,0.00,,,0.06,Wunderground v.1.15,2013-01-13 02:07:00,
2013-01-12 21:10:00,54.0,52.0,30.23,SE,128,0.0,1.0,93,0.00,,,0.06,Wunderground v.1.15,2013-01-13 02:10:00,
2013-01-12 21:11:00,52.6,50.0,30.22,SE,128,0.0,1.0,91,0.00,,,0.06,Wunderground v.1.15,2013-01-13 02:11:00,
2013-01-12 21:12:00,51.5,48.7,30.22,SE,128,0.0,1.0,90,0.00,,,0.06,Wunderground v.1.15,2013-01-13 02:12:00,
2013-01-12 21:15:00,47.9,45.1,30.22,SE,128,0.0,1.0,90,0.00,,,0.06,Wunderground v.1.15,2013-01-13 02:15:00,
2013-01-12 21:16:00,46.1,43.3,30.22,SE,128,0.0,0.0,90,0.00,,,0.06,Wunderground v.1.15,2013-01-13 02:16:00,
2013-01-12 21:18:00,45.1,42.3,30.22,SE,128,0.0,0.0,90,0.00,,,0.06,Wunderground v.1.15,2013-01-13 02:18:00,
2013-01-12 21:20:00,44.0,41.3,30.22,SE,128,0.0,0.0,90,0.00,,,0.06,Wunderground v.1.15,2013-01-13 02:20:00,
2013-01-12 21:22:00,42.7,40.3,30.22,SE,128,0.0,0.0,91,0.00,,,0.06,Wunderground v.1.15,2013-01-13 02:22:00,
2013-01-12 21:23:00,42.3,39.6,30.22,SE,128,0.0,0.0,90,0.00,,,0.06,Wunderground v.1.15,2013-01-13 02:23:00,
2013-01-12 21:26:00,41.2,38.5,30.22,SE,128,0.0,0.0,90,0.00,,,0.06,Wunderground v.1.15,2013-01-13 02:26:00,
2013-01-12 21:27:00,40.9,38.5,30.22,SE,128,0.0,0.0,91,0.00,,,0.06,Wunderground v.1.15,2013-01-13 02:27:00,
2013-01-12 21:28:00,40.9,38.5,30.22,SE,128,0.0,0.0,91,0.00,,,0.06,Wunderground v.1.15,2013-01-13 02:28:00,
2013-01-12 21:31:00,40.2,37.8,30.22,SE,128,0.0,0.0,91,0.00,,,0.06,Wunderground v.1.15,2013-01-13 02:31:00,
2013-01-12 21:32:00,40.1,37.7,30.22,SE,128,0.0,0.0,91,0.00,,,0.06,Wunderground v.1.15,2013-01-13 02:32:00,
2013-01-12 21:33:00,39.9,37.5,30.22,SE,128,0.0,0.0,91,0.00,,,0.06,Wunderground v.1.15,2013-01-13 02:33:00,
2013-01-12 21:36:00,39.8,37.4,30.22,SE,128,0.0,0.0,91,0.00,,,0.07,Wunderground v.1.15,2013-01-13 02:36:00,
2013-01-12 21:37:00,39.8,37.4,30.22,SE,128,0.0,0.0,91,0.00,,,0.07,Wunderground v.1.15,2013-01-13 02:37:00,
2013-01-12 21:38:00,39.9,37.5,30.22,SE,128,0.0,0.0,91,0.00,,,0.07,Wunderground v.1.15,2013-01-13 02:38:00,
2013-01-12 21:39:00,39.9,37.5,30.22,SE,128,0.0,0.0,91,0.00,,,0.07,Wunderground v.1.15,2013-01-13 02:39:00,
2013-01-12 21:41:00,40.0,37.6,30.22,SE,128,0.0,0.0,91,0.00,,,0.07,Wunderground v.1.15,2013-01-13 02:41:00,
2013-01-12 21:42:00,40.0,37.6,30.22,SE,128,0.0,0.0,91,0.00,,,0.07,Wunderground v.1.15,2013-01-13 02:42:00,
2013-01-12 21:43:00,40.0,37.6,30.22,SE,128,0.0,0.0,91,0.00,,,0.07,Wunderground v.1.15,2013-01-13 02:43:00,
2013-01-12 21:44:00,40.0,37.6,30.22,SE,128,0.0,0.0,91,0.00,,,0.07,Wunderground v.1.15,2013-01-13 02:44:00,
2013-01-12 21:47:00,40.0,37.6,30.22,SE,128,0.0,0.0,91,0.00,,,0.07,Wunderground v.1.15,2013-01-13 02:47:00,
2013-01-12 21:48:00,39.9,37.5,30.22,SE,128,0.0,0.0,91,0.00,,,0.07,Wunderground v.1.15,2013-01-13 02:48:00,
2013-01-12 21:49:00,39.9,37.5,30.22,SE,128,0.0,0.0,91,0.00,,,0.07,Wunderground v.1.15,2013-01-13 02:49:00,
2013-01-12 21:52:00,39.8,37.4,30.22,SE,128,0.0,0.0,91,0.00,,,0.07,Wunderground v.1.15,2013-01-13 02:52:00,
2013-01-12 21:53:00,39.8,37.4,30.22,SE,128,0.0,0.0,91,0.00,,,0.07,Wunderground v.1.15,2013-01-13 02:53:00,
2013-01-12 21:54:00,39.7,37.3,30.22,SE,128,0.0,0.0,91,0.00,,,0.07,Wunderground v.1.15,2013-01-13 02:54:00,
2013-01-12 21:57:00,39.7,37.3,30.23,SE,128,0.0,0.0,91,0.00,,,0.07,Wunderground v.1.15,2013-01-13 02:57:00,
2013-01-12 21:58:00,39.7,37.3,30.23,SE,128,0.0,0.0,91,0.00,,,0.07,Wunderground v.1.15,2013-01-13 02:58:00,
2013-01-12 22:00:00,39.6,37.2,30.22,SE,128,0.0,0.0,91,0.00,,,0.07,Wunderground v.1.15,2013-01-13 03:00:00,
2013-01-12 22:02:00,39.6,37.2,30.22,SE,128,0.0,0.0,91,0.00,,,0.07,Wunderground v.1.15,2013-01-13 03:02:00,
2013-01-12 22:03:00,39.6,37.2,30.22,SE,128,0.0,0.0,91,0.00,,,0.07,Wunderground v.1.15,2013-01-13 03:03:00,
2013-01-12 22:05:00,39.4,37.0,30.22,SE,128,1.0,2.0,91,0.00,,,0.07,Wunderground v.1.15,2013-01-13 03:05:00,
2013-01-12 22:07:00,39.4,37.0,30.22,SE,128,1.0,2.0,91,0.00,,,0.07,Wunderground v.1.15,2013-01-13 03:07:00,
2013-01-12 22:08:00,39.5,37.1,30.22,SE,128,1.0,2.0,91,0.00,,,0.07,Wunderground v.1.15,2013-01-13 03:08:00,
2013-01-12 22:11:00,39.6,37.2,30.22,SE,128,1.0,2.0,91,0.00,,,0.07,Wunderground v.1.15,2013-01-13 03:11:00,
2013-01-12 22:12:00,39.7,37.3,30.22,SE,128,1.0,2.0,91,0.00,,,0.07,Wunderground v.1.15,2013-01-13 03:12:00,
2013-01-12 22:13:00,39.8,37.4,30.22,SE,128,1.0,2.0,91,0.00,,,0.07,Wunderground v.1.15,2013-01-13 03:13:00,
2013-01-12 22:14:00,39.8,37.4,30.22,SE,128,1.0,2.0,91,0.00,,,0.07,Wunderground v.1.15,2013-01-13 03:14:00,
2013-01-12 22:16:00,39.8,37.4,30.22,SE,128,0.0,1.0,91,0.00,,,0.07,Wunderground v.1.15,2013-01-13 03:16:00,
2013-01-12 22:17:00,39.8,37.4,30.22,SE,128,0.0,1.0,91,0.00,,,0.07,Wunderground v.1.15,2013-01-13 03:17:00,
2013-01-12 22:18:00,39.8,37.4,30.21,SE,128,0.0,1.0,91,0.00,,,0.07,Wunderground v.1.15,2013-01-13 03:18:00,
2013-01-12 22:19:00,39.8,37.4,30.21,SE,128,0.0,1.0,91,0.00,,,0.07,Wunderground v.1.15,2013-01-13 03:19:00,
2013-01-12 22:21:00,39.8,37.4,30.21,SE,128,0.0,1.0,91,0.00,,,0.07,Wunderground v.1.15,2013-01-13 03:21:00,
2013-01-12 22:22:00,39.7,37.3,30.21,SE,128,0.0,1.0,91,0.00,,,0.07,Wunderground v.1.15,2013-01-13 03:22:00,
2013-01-12 22:24:00,39.6,37.2,30.21,SE,128,0.0,1.0,91,0.00,,,0.07,Wunderground v.1.15,2013-01-13 03:24:00,
2013-01-12 22:26:00,39.2,36.8,30.21,SE,128,0.0,0.0,91,0.00,,,0.07,Wunderground v.1.15,2013-01-13 03:26:00,
2013-01-12 22:28:00,38.9,36.5,30.21,SE,128,0.0,0.0,91,0.00,,,0.07,Wunderground v.1.15,2013-01-13 03:28:00,
2013-01-12 22:29:00,38.8,36.4,30.21,SE,128,0.0,0.0,91,0.00,,,0.07,Wunderground v.1.15,2013-01-13 03:29:00,
2013-01-12 22:30:00,38.8,36.4,30.21,SE,128,0.0,0.0,91,0.00,,,0.07,Wunderground v.1.15,2013-01-13 03:30:00,
2013-01-12 22:32:00,38.7,36.3,30.21,SE,128,1.0,1.0,91,0.00,,,0.07,Wunderground v.1.15,2013-01-13 03:32:00,
2013-01-12 22:34:00,38.6,36.2,30.21,SE,128,0.0,1.0,91,0.00,,,0.07,Wunderground v.1.15,2013-01-13 03:34:00,
2013-01-12 22:35:00,38.4,36.0,30.21,SE,128,0.0,1.0,91,0.00,,,0.07,Wunderground v.1.15,2013-01-13 03:35:00,
2013-01-12 22:37:00,38.4,36.0,30.21,SE,128,0.0,0.0,91,0.00,,,0.07,Wunderground v.1.15,2013-01-13 03:37:00,
2013-01-12 22:39:00,38.4,36.0,30.21,SE,128,0.0,0.0,91,0.00,,,0.07,Wunderground v.1.15,2013-01-13 03:39:00,
2013-01-12 22:40:00,38.4,36.0,30.21,SE,128,0.0,0.0,91,0.00,,,0.07,Wunderground v.1.15,2013-01-13 03:40:00,
2013-01-12 22:42:00,38.4,36.0,30.21,SE,128,0.0,0.0,91,0.00,,,0.07,Wunderground v.1.15,2013-01-13 03:42:00,
2013-01-12 22:44:00,38.4,36.0,30.22,SE,128,0.0,1.0,91,0.00,,,0.07,Wunderground v.1.15,2013-01-13 03:44:00,
2013-01-12 22:45:00,38.5,36.1,30.22,SE,128,1.0,1.0,91,0.00,,,0.07,Wunderground v.1.15,2013-01-13 03:45:00,
2013-01-12 22:46:00,38.5,36.1,30.21,SE,128,0.0,0.0,91,0.00,,,0.07,Wunderground v.1.15,2013-01-13 03:46:00,
2013-01-12 22:47:00,38.5,36.1,30.21,SE,128,0.0,1.0,91,0.00,,,0.07,Wunderground v.1.15,2013-01-13 03:47:00,
2013-01-12 22:49:00,38.6,36.2,30.21,SE,128,1.0,1.0,91,0.00,,,0.07,Wunderground v.1.15,2013-01-13 03:49:00,
2013-01-12 22:50:00,38.7,36.3,30.21,SE,128,0.0,1.0,91,0.00,,,0.07,Wunderground v.1.15,2013-01-13 03:50:00,
2013-01-12 22:51:00,38.7,36.3,30.21,SE,128,0.0,1.0,91,0.00,,,0.07,Wunderground v.1.15,2013-01-13 03:51:00,
2013-01-12 22:53:00,38.8,36.4,30.21,SE,128,0.0,1.0,91,0.00,,,0.07,Wunderground v.1.15,2013-01-13 03:53:00,
2013-01-12 22:54:00,38.9,36.5,30.21,SE,128,0.0,1.0,91,0.00,,,0.07,Wunderground v.1.15,2013-01-13 03:54:00,
2013-01-12 22:55:00,39.0,36.6,30.21,SE,128,0.0,1.0,91,0.00,,,0.07,Wunderground v.1.15,2013-01-13 03:55:00,
2013-01-12 22:57:00,39.1,36.7,30.21,SE,128,0.0,0.0,91,0.00,,,0.07,Wunderground v.1.15,2013-01-13 03:57:00,
2013-01-12 22:58:00,39.2,36.8,30.21,SE,128,0.0,0.0,91,0.00,,,0.07,Wunderground v.1.15,2013-01-13 03:58:00,
2013-01-12 22:59:00,39.2,36.8,30.21,SE,128,0.0,0.0,91,0.00,,,0.07,Wunderground v.1.15,2013-01-13 03:59:00,
2013-01-12 23:01:00,39.2,36.8,30.20,SE,128,0.0,0.0,91,0.00,,,0.07,Wunderground v.1.15,2013-01-13 04:01:00,
2013-01-12 23:02:00,39.2,36.8,30.20,SE,128,0.0,1.0,91,0.00,,,0.07,Wunderground v.1.15,2013-01-13 04:02:00,
2013-01-12 23:03:00,39.2,36.8,30.20,SE,128,0.0,1.0,91,0.00,,,0.07,Wunderground v.1.15,2013-01-13 04:03:00,
2013-01-12 23:04:00,39.2,36.8,30.20,SE,128,0.0,1.0,91,0.00,,,0.07,Wunderground v.1.15,2013-01-13 04:04:00,
2013-01-12 23:06:00,39.2,36.8,30.21,SE,128,0.0,0.0,91,0.00,,,0.07,Wunderground v.1.15,2013-01-13 04:06:00,
2013-01-12 23:08:00,39.2,36.8,30.21,SE,128,0.0,0.0,91,0.00,,,0.07,Wunderground v.1.15,2013-01-13 04:08:00,
2013-01-12 23:09:00,39.1,36.7,30.21,SE,128,0.0,0.0,91,0.00,,,0.07,Wunderground v.1.15,2013-01-13 04:09:00,
2013-01-12 23:11:00,39.1,36.7,30.21,SE,128,1.0,2.0,91,0.00,,,0.07,Wunderground v.1.15,2013-01-13 04:11:00,
2013-01-12 23:14:00,38.9,36.5,30.21,SE,128,2.0,2.0,91,0.00,,,0.07,Wunderground v.1.15,2013-01-13 04:14:00,
2013-01-12 23:16:00,38.7,36.3,30.22,SE,128,3.0,3.0,91,0.00,,,0.07,Wunderground v.1.15,2013-01-13 04:16:00,
2013-01-12 23:19:00,38.5,36.1,30.22,SE,128,2.0,3.0,91,0.00,,,0.07,Wunderground v.1.15,2013-01-13 04:19:00,
2013-01-12 23:20:00,38.4,36.0,30.22,SE,128,1.0,3.0,91,0.00,,,0.07,Wunderground v.1.15,2013-01-13 04:20:00,
2013-01-12 23:21:00,38.3,35.9,30.22,SE,128,1.0,3.0,91,0.00,,,0.07,Wunderground v.1.15,2013-01-13 04:21:00,
2013-01-12 23:24:00,38.3,35.9,30.22,SE,128,0.0,3.0,91,0.00,,,0.07,Wunderground v.1.15,2013-01-13 04:24:00,
2013-01-12 23:25:00,38.4,36.0,30.22,SE,128,0.0,3.0,91,0.00,,,0.07,Wunderground v.1.15,2013-01-13 04:25:00,
2013-01-12 23:27:00,38.4,36.0,30.22,SE,128,0.0,1.0,91,0.00,,,0.07,Wunderground v.1.15,2013-01-13 04:27:00,
2013-01-12 23:29:00,38.5,36.1,30.22,SE,128,1.0,2.0,91,0.00,,,0.07,Wunderground v.1.15,2013-01-13 04:29:00,
2013-01-12 23:30:00,38.5,36.1,30.22,SE,128,2.0,2.0,91,0.00,,,0.07,Wunderground v.1.15,2013-01-13 04:30:00,
2013-01-12 23:32:00,38.5,36.1,30.22,SE,128,1.0,3.0,91,0.00,,,0.07,Wunderground v.1.15,2013-01-13 04:32:00,
2013-01-12 23:34:00,38.5,36.1,30.22,SE,128,0.0,3.0,91,0.00,,,0.07,Wunderground v.1.15,2013-01-13 04:34:00,
2013-01-12 23:35:00,38.5,36.1,30.22,SE,128,0.0,3.0,91,0.00,,,0.07,Wunderground v.1.15,2013-01-13 04:35:00,
2013-01-12 23:37:00,38.6,36.2,30.22,SE,128,0.0,1.0,91,0.00,,,0.07,Wunderground v.1.15,2013-01-13 04:37:00,
2013-01-12 23:40:00,38.7,36.3,30.22,SE,128,0.0,1.0,91,0.00,,,0.07,Wunderground v.1.15,2013-01-13 04:40:00,
2013-01-12 23:41:00,38.8,36.4,30.22,SE,128,0.0,1.0,91,0.00,,,0.07,Wunderground v.1.15,2013-01-13 04:41:00,
2013-01-12 23:42:00,38.8,36.4,30.22,SE,128,0.0,1.0,91,0.00,,,0.07,Wunderground v.1.15,2013-01-13 04:42:00,
2013-01-12 23:45:00,39.1,36.7,30.22,SE,128,0.0,1.0,91,0.00,,,0.07,Wunderground v.1.15,2013-01-13 04:45:00,
2013-01-12 23:46:00,39.1,36.7,30.22,SE,128,0.0,1.0,91,0.00,,,0.07,Wunderground v.1.15,2013-01-13 04:46:00,
2013-01-12 23:47:00,39.3,36.9,30.22,SE,128,0.0,1.0,91,0.00,,,0.07,Wunderground v.1.15,2013-01-13 04:47:00,
2013-01-12 23:48:00,39.9,37.5,30.22,SE,128,0.0,1.0,91,0.00,,,0.00,Wunderground v.1.15,2013-01-13 04:48:00,
2013-01-12 23:49:00,39.9,37.5,30.22,SE,128,0.0,1.0,91,0.00,,,0.00,Wunderground v.1.15,2013-01-13 04:49:00,
2013-01-12 23:50:00,39.5,37.1,30.22,SE,128,0.0,1.0,91,0.00,,,0.07,Wunderground v.1.15,2013-01-13 04:50:00,
2013-01-12 23:51:00,39.6,37.2,30.22,SE,128,0.0,1.0,91,0.00,,,0.07,Wunderground v.1.15,2013-01-13 04:51:00,
2013-01-12 23:52:00,40.0,37.6,30.22,SE,128,0.0,0.0,91,0.00,,,0.00,Wunderground v.1.15,2013-01-13 04:52:00,
2013-01-12 23:53:00,39.7,37.3,30.22,SE,128,0.0,1.0,91,0.00,,,0.07,Wunderground v.1.15,2013-01-13 04:53:00,
2013-01-12 23:54:00,39.9,37.5,30.22,SE,128,0.0,1.0,91,0.00,,,0.00,Wunderground v.1.15,2013-01-13 04:54:00,
2013-01-12 23:56:00,39.8,37.4,30.22,SE,128,0.0,1.0,91,0.00,,,0.07,Wunderground v.1.15,2013-01-13 04:56:00,
2013-01-12 23:58:00,39.8,37.4,30.22,SE,128,0.0,0.0,91,0.00,,,0.07,Wunderground v.1.15,2013-01-13 04:58:00,